Wetterdaten: Samstag, 26.01.2019
Datum Zeit Temp. Aussen Temp. o. S. +5cm Feuchte Auss Luftdruck Regen Sonnenschein Regendauer Solar Windben Empfang
26.01.2019 00:00 2,9 C 2,2 C 1,7 C 98 % 1008,0 hPa 0,0 l/m 0 min 0 min 0 W/m 19,3 km/h (3 Bft) 95,74 %
26.01.2019 00:02 2,9 C 2,2 C 1,7 C 98 % 1008,0 hPa 0,0 l/m 0 min 0 min 0 W/m 6,4 km/h (2 Bft) 10,53 %
26.01.2019 00:04 2,9 C 2,2 C 1,7 C 98 % 1007,9 hPa 0,0 l/m 0 min 0 min 0 W/m 9,7 km/h (2 Bft) 88,37 %
26.01.2019 00:08 2,9 C 2,2 C 1,7 C 98 % 1007,9 hPa 0,0 l/m 0 min 0 min 0 W/m 16,1 km/h (3 Bft) 95,70 %
26.01.2019 00:10 2,9 C 2,8 C 1,7 C 98 % 1007,8 hPa 0,0 l/m 0 min 0 min 0 W/m 16,1 km/h (3 Bft) 97,87 %
26.01.2019 00:12 3,0 C 2,2 C 1,7 C 98 % 1007,9 hPa 0,0 l/m 0 min 0 min 0 W/m 12,9 km/h (3 Bft) 97,87 %
26.01.2019 00:14 3,0 C 2,8 C 1,7 C 98 % 1007,9 hPa 0,0 l/m 0 min 0 min 0 W/m 16,1 km/h (3 Bft) 97,87 %
26.01.2019 00:16 3,0 C 2,8 C 1,7 C 98 % 1007,8 hPa 0,0 l/m 0 min 0 min 0 W/m 12,9 km/h (3 Bft) 97,87 %
26.01.2019 00:18 3,0 C 2,8 C 1,7 C 98 % 1007,8 hPa 0,0 l/m 0 min 0 min 0 W/m 19,3 km/h (3 Bft) 97,83 %
26.01.2019 00:20 3,1 C 2,8 C 1,7 C 98 % 1007,9 hPa 0,0 l/m 0 min 0 min 0 W/m 9,7 km/h (2 Bft) 100,00 %
26.01.2019 00:22 3,1 C 2,8 C 1,7 C 98 % 1007,8 hPa 0,0 l/m 0 min 0 min 0 W/m 12,9 km/h (3 Bft) 100,00 %
26.01.2019 00:24 3,1 C 2,8 C 1,7 C 98 % 1007,9 hPa 0,0 l/m 0 min 0 min 0 W/m 9,7 km/h (2 Bft) 97,87 %
26.01.2019 00:26 3,1 C 2,8 C 1,7 C 98 % 1007,8 hPa 0,0 l/m 0 min 0 min 0 W/m 19,3 km/h (3 Bft) 97,87 %
26.01.2019 00:28 3,1 C 2,8 C 1,7 C 98 % 1007,8 hPa 0,0 l/m 0 min 0 min 0 W/m 9,7 km/h (2 Bft) 100,00 %
26.01.2019 00:30 3,1 C 2,8 C 1,7 C 98 % 1007,8 hPa 0,0 l/m 0 min 0 min 0 W/m 9,7 km/h (2 Bft) 97,83 %
26.01.2019 00:32 3,2 C 2,8 C 1,7 C 98 % 1007,8 hPa 0,0 l/m 0 min 0 min 0 W/m 9,7 km/h (2 Bft) 97,87 %
26.01.2019 00:34 3,2 C 2,8 C 1,7 C 98 % 1007,8 hPa 0,0 l/m 0 min 0 min 0 W/m 19,3 km/h (3 Bft) 97,87 %
26.01.2019 00:36 3,2 C 2,8 C 1,7 C 98 % 1007,9 hPa 0,0 l/m 0 min 0 min 0 W/m 16,1 km/h (3 Bft) 100,00 %
26.01.2019 00:38 3,2 C 2,8 C 1,7 C 98 % 1007,8 hPa 0,0 l/m 0 min 0 min 0 W/m 22,5 km/h (4 Bft) 97,87 %
26.01.2019 00:40 3,2 C 2,8 C 1,7 C 98 % 1007,9 hPa 0,0 l/m 0 min 0 min 0 W/m 12,9 km/h (3 Bft) 97,87 %
26.01.2019 00:42 3,2 C 2,8 C 1,7 C 98 % 1007,8 hPa 0,0 l/m 0 min 0 min 0 W/m 12,9 km/h (3 Bft) 97,83 %
26.01.2019 00:44 3,3 C 2,8 C 1,7 C 98 % 1007,8 hPa 0,0 l/m 0 min 0 min 0 W/m 12,9 km/h (3 Bft) 100,00 %
26.01.2019 00:46 3,3 C 2,8 C 1,7 C 98 % 1007,8 hPa 0,0 l/m 0 min 0 min 0 W/m 9,7 km/h (2 Bft) 100,00 %
26.01.2019 00:48 3,3 C 2,8 C 1,7 C 98 % 1007,8 hPa 0,0 l/m 0 min 0 min 0 W/m 9,7 km/h (2 Bft) 100,00 %
26.01.2019 00:50 3,3 C 2,8 C 1,7 C 98 % 1007,8 hPa 0,0 l/m 0 min 0 min 0 W/m 9,7 km/h (2 Bft) 97,87 %
26.01.2019 00:52 3,3 C 2,8 C 1,7 C 98 % 1007,7 hPa 0,0 l/m 0 min 0 min 0 W/m 16,1 km/h (3 Bft) 97,87 %
26.01.2019 00:54 3,3 C 2,8 C 1,7 C 98 % 1007,8 hPa 0,0 l/m 0 min 0 min 0 W/m 16,1 km/h (3 Bft) 97,83 %
26.01.2019 00:56 3,3 C 2,8 C 1,7 C 98 % 1007,8 hPa 0,0 l/m 0 min 0 min 0 W/m 9,7 km/h (2 Bft) 97,87 %
26.01.2019 00:58 3,3 C 2,8 C 1,7 C 98 % 1007,8 hPa 0,0 l/m 0 min 0 min 0 W/m 6,4 km/h (2 Bft) 97,87 %
26.01.2019 01:00 3,3 C 2,8 C 1,7 C 98 % 1007,8 hPa 0,0 l/m 0 min 0 min 0 W/m 6,4 km/h (2 Bft) 97,87 %
26.01.2019 01:02 3,3 C 2,8 C 1,7 C 98 % 1007,8 hPa 0,0 l/m 0 min 0 min 0 W/m 6,4 km/h (2 Bft) 97,87 %
26.01.2019 01:04 3,3 C 2,8 C 2,2 C 98 % 1007,8 hPa 0,0 l/m 0 min 0 min 0 W/m 9,7 km/h (2 Bft) 97,83 %
26.01.2019 01:06 3,3 C 2,8 C 2,2 C 98 % 1007,8 hPa 0,0 l/m 0 min 0 min 0 W/m 16,1 km/h (3 Bft) 95,74 %
26.01.2019 01:08 3,3 C 2,8 C 2,2 C 98 % 1007,9 hPa 0,0 l/m 0 min 0 min 0 W/m 9,7 km/h (2 Bft) 95,74 %
26.01.2019 01:10 3,3 C 2,8 C 2,2 C 98 % 1007,9 hPa 0,0 l/m 0 min 0 min 0 W/m 9,7 km/h (2 Bft) 97,87 %
26.01.2019 01:12 3,4 C 2,8 C 2,2 C 98 % 1007,8 hPa 0,0 l/m 0 min 0 min 0 W/m 9,7 km/h (2 Bft) 97,87 %
26.01.2019 01:14 3,4 C 2,8 C 2,2 C 98 % 1007,8 hPa 0,0 l/m 0 min 0 min 0 W/m 12,9 km/h (3 Bft) 95,74 %
26.01.2019 01:16 3,4 C 2,8 C 2,2 C 98 % 1007,8 hPa 0,0 l/m 0 min 0 min 0 W/m 19,3 km/h (3 Bft) 97,83 %
26.01.2019 01:18 3,4 C 2,8 C 2,2 C 98 % 1007,7 hPa 0,0 l/m 0 min 0 min 0 W/m 9,7 km/h (2 Bft) 97,87 %
26.01.2019 01:20 3,4 C 2,8 C 2,2 C 98 % 1007,7 hPa 0,0 l/m 0 min 0 min 0 W/m 16,1 km/h (3 Bft) 95,74 %
26.01.2019 01:22 3,4 C 2,8 C 2,2 C 98 % 1007,6 hPa 0,0 l/m 0 min 0 min 0 W/m 19,3 km/h (3 Bft) 97,87 %
26.01.2019 01:24 3,4 C 2,8 C 2,2 C 98 % 1007,6 hPa 0,0 l/m 0 min 0 min 0 W/m 9,7 km/h (2 Bft) 97,87 %
26.01.2019 01:26 3,4 C 2,8 C 2,2 C 98 % 1007,6 hPa 0,0 l/m 0 min 0 min 0 W/m 9,7 km/h (2 Bft) 97,87 %
26.01.2019 01:28 3,4 C 2,8 C 2,2 C 98 % 1007,6 hPa 0,0 l/m 0 min 0 min 0 W/m 12,9 km/h (3 Bft) 97,83 %
26.01.2019 01:30 3,4 C 2,8 C 2,2 C 98 % 1007,6 hPa 0,0 l/m 0 min 0 min 0 W/m 6,4 km/h (2 Bft) 95,74 %
26.01.2019 01:32 3,4 C 2,8 C 2,2 C 98 % 1007,6 hPa 0,0 l/m 0 min 0 min 0 W/m 9,7 km/h (2 Bft) 97,87 %
26.01.2019 01:34 3,5 C 3,3 C 2,2 C 98 % 1007,6 hPa 0,0 l/m 0 min 0 min 0 W/m 19,3 km/h (3 Bft) 97,87 %
26.01.2019 01:36 3,5 C 3,3 C 2,2 C 98 % 1007,6 hPa 0,0 l/m 0 min 0 min 0 W/m 12,9 km/h (3 Bft) 97,87 %
26.01.2019 01:38 3,6 C 3,3 C 2,2 C 98 % 1007,6 hPa 0,0 l/m 0 min 0 min 0 W/m 9,7 km/h (2 Bft) 97,87 %
26.01.2019 01:40 3,6 C 3,3 C 2,2 C 98 % 1007,6 hPa 0,0 l/m 0 min 0 min 0 W/m 25,7 km/h (4 Bft) 95,65 %
26.01.2019 01:42 3,6 C 3,3 C 2,2 C 98 % 1007,6 hPa 0,0 l/m 0 min 0 min 0 W/m 16,1 km/h (3 Bft) 97,87 %
26.01.2019 01:44 3,6 C 3,3 C 2,2 C 98 % 1007,5 hPa 0,0 l/m 0 min 0 min 0 W/m 9,7 km/h (2 Bft) 97,87 %
26.01.2019 01:46 3,6 C 3,3 C 2,2 C 98 % 1007,6 hPa 0,0 l/m 0 min 0 min 0 W/m 9,7 km/h (2 Bft) 95,74 %
26.01.2019 01:48 3,6 C 3,3 C 2,2 C 98 % 1007,6 hPa 0,0 l/m 0 min 0 min 0 W/m 16,1 km/h (3 Bft) 100,00 %
26.01.2019 01:50 3,7 C 3,3 C 2,2 C 99 % 1007,5 hPa 0,0 l/m 0 min 0 min 0 W/m 12,9 km/h (3 Bft) 100,00 %
26.01.2019 01:52 3,7 C 3,3 C 2,2 C 99 % 1007,6 hPa 0,0 l/m 0 min 0 min 0 W/m 9,7 km/h (2 Bft) 100,00 %
26.01.2019 01:54 3,7 C 3,3 C 2,2 C 99 % 1007,7 hPa 0,0 l/m 0 min 0 min 0 W/m 16,1 km/h (3 Bft) 100,00 %
26.01.2019 01:56 3,7 C 3,3 C 2,2 C 99 % 1007,6 hPa 0,0 l/m 0 min 0 min 0 W/m 9,7 km/h (2 Bft) 100,00 %
26.01.2019 01:58 3,7 C 3,3 C 2,2 C 99 % 1007,6 hPa 0,0 l/m 0 min 0 min 0 W/m 9,7 km/h (2 Bft) 100,00 %
26.01.2019 02:00 3,7 C 3,3 C 2,2 C 99 % 1007,5 hPa 0,0 l/m 0 min 0 min 0 W/m 12,9 km/h (3 Bft) 95,74 %
26.01.2019 02:02 3,7 C 3,3 C 2,2 C 98 % 1007,5 hPa 0,0 l/m 0 min 0 min 0 W/m 12,9 km/h (3 Bft) 95,74 %
26.01.2019 02:04 3,7 C 3,3 C 2,2 C 98 % 1007,5 hPa 0,0 l/m 0 min 0 min 0 W/m 6,4 km/h (2 Bft) 97,83 %
26.01.2019 02:06 3,7 C 3,3 C 2,2 C 98 % 1007,4 hPa 0,0 l/m 0 min 0 min 0 W/m 12,9 km/h (3 Bft) 95,74 %
26.01.2019 02:08 3,8 C 3,3 C 2,2 C 98 % 1007,4 hPa 0,0 l/m 0 min 0 min 0 W/m 12,9 km/h (3 Bft) 97,87 %
26.01.2019 02:10 3,8 C 3,3 C 2,2 C 98 % 1007,5 hPa 0,0 l/m 0 min 0 min 0 W/m 16,1 km/h (3 Bft) 97,87 %
26.01.2019 02:12 3,8 C 3,3 C 2,2 C 98 % 1007,5 hPa 0,0 l/m 0 min 0 min 0 W/m 9,7 km/h (2 Bft) 95,74 %
26.01.2019 02:14 3,8 C 3,3 C 2,2 C 98 % 1007,4 hPa 0,0 l/m 0 min 0 min 0 W/m 9,7 km/h (2 Bft) 97,87 %
26.01.2019 02:16 3,8 C 3,3 C 2,2 C 98 % 1007,6 hPa 0,0 l/m 0 min 0 min 0 W/m 12,9 km/h (3 Bft) 97,83 %
26.01.2019 02:18 3,8 C 3,3 C 2,2 C 98 % 1007,5 hPa 0,0 l/m 0 min 0 min 0 W/m 25,7 km/h (4 Bft) 93,62 %
26.01.2019 02:20 3,8 C 3,3 C 2,2 C 98 % 1007,3 hPa 0,0 l/m 0 min 0 min 0 W/m 16,1 km/h (3 Bft) 97,87 %
26.01.2019 02:22 3,8 C 3,3 C 2,2 C 98 % 1007,3 hPa 0,0 l/m 0 min 0 min 0 W/m 9,7 km/h (2 Bft) 97,87 %
26.01.2019 02:24 3,8 C 3,3 C 2,2 C 98 % 1007,3 hPa 0,0 l/m 0 min 0 min 0 W/m 12,9 km/h (3 Bft) 97,87 %
26.01.2019 02:26 3,8 C 3,3 C 2,2 C 98 % 1007,3 hPa 0,0 l/m 0 min 0 min 0 W/m 19,3 km/h (3 Bft) 97,83 %
26.01.2019 02:28 3,8 C 3,3 C 2,2 C 98 % 1007,3 hPa 0,0 l/m 0 min 0 min 0 W/m 12,9 km/h (3 Bft) 97,87 %
26.01.2019 02:30 3,8 C 3,3 C 2,2 C 98 % 1007,2 hPa 0,0 l/m 0 min 0 min 0 W/m 9,7 km/h (2 Bft) 97,87 %
26.01.2019 02:32 3,8 C 3,3 C 2,2 C 98 % 1007,2 hPa 0,0 l/m 0 min 0 min 0 W/m 6,4 km/h (2 Bft) 97,87 %
26.01.2019 02:34 3,8 C 3,3 C 2,2 C 98 % 1007,2 hPa 0,0 l/m 0 min 0 min 0 W/m 19,3 km/h (3 Bft) 95,74 %
26.01.2019 02:36 3,8 C 3,3 C 2,8 C 98 % 1007,2 hPa 0,0 l/m 0 min 0 min 0 W/m 12,9 km/h (3 Bft) 97,87 %
26.01.2019 02:38 3,9 C 3,3 C 2,8 C 98 % 1007,1 hPa 0,0 l/m 0 min 0 min 0 W/m 9,7 km/h (2 Bft) 95,65 %
26.01.2019 02:40 3,9 C 3,3 C 2,8 C 98 % 1007,1 hPa 0,0 l/m 0 min 0 min 0 W/m 12,9 km/h (3 Bft) 95,74 %
26.01.2019 02:42 3,9 C 3,3 C 2,8 C 99 % 1007,1 hPa 0,0 l/m 0 min 0 min 0 W/m 12,9 km/h (3 Bft) 95,74 %
26.01.2019 02:44 3,9 C 3,3 C 2,8 C 99 % 1007,1 hPa 0,0 l/m 0 min 0 min 0 W/m 16,1 km/h (3 Bft) 97,87 %
26.01.2019 02:46 3,9 C 3,3 C 2,8 C 99 % 1007,3 hPa 0,0 l/m 0 min 0 min 0 W/m 12,9 km/h (3 Bft) 97,87 %
26.01.2019 02:48 3,9 C 3,3 C 2,8 C 99 % 1007,1 hPa 0,0 l/m 0 min 0 min 0 W/m 16,1 km/h (3 Bft) 97,87 %
26.01.2019 02:50 3,9 C 3,3 C 2,8 C 99 % 1007,0 hPa 0,0 l/m 0 min 0 min 0 W/m 9,7 km/h (2 Bft) 95,65 %
26.01.2019 02:52 4,0 C 3,3 C 2,8 C 99 % 1007,0 hPa 0,0 l/m 0 min 0 min 0 W/m 19,3 km/h (3 Bft) 97,87 %
26.01.2019 02:54 4,0 C 3,3 C 2,8 C 99 % 1007,1 hPa 0,0 l/m 0 min 0 min 0 W/m 12,9 km/h (3 Bft) 95,74 %
26.01.2019 02:56 4,0 C 3,3 C 2,8 C 99 % 1007,1 hPa 0,0 l/m 0 min 0 min 0 W/m 19,3 km/h (3 Bft) 97,87 %
26.01.2019 02:58 4,0 C 3,3 C 2,8 C 99 % 1007,1 hPa 0,0 l/m 0 min 0 min 0 W/m 22,5 km/h (4 Bft) 97,87 %
26.01.2019 03:00 4,0 C 3,3 C 2,8 C 99 % 1007,0 hPa 0,0 l/m 0 min 0 min 0 W/m 16,1 km/h (3 Bft) 97,87 %
26.01.2019 03:02 4,1 C 3,9 C 2,8 C 99 % 1007,0 hPa 0,0 l/m 0 min 0 min 0 W/m 16,1 km/h (3 Bft) 97,83 %
26.01.2019 03:04 4,1 C 3,9 C 2,8 C 99 % 1007,0 hPa 0,0 l/m 0 min 0 min 0 W/m 12,9 km/h (3 Bft) 97,87 %
26.01.2019 03:06 4,1 C 3,3 C 2,8 C 99 % 1007,0 hPa 0,0 l/m 0 min 0 min 0 W/m 16,1 km/h (3 Bft) 97,87 %
26.01.2019 03:08 4,1 C 3,3 C 2,8 C 99 % 1007,0 hPa 0,0 l/m 0 min 0 min 0 W/m 12,9 km/h (3 Bft) 97,87 %
26.01.2019 03:10 4,1 C 3,9 C 2,8 C 99 % 1007,0 hPa 0,0 l/m 0 min 0 min 0 W/m 16,1 km/h (3 Bft) 97,87 %
26.01.2019 03:12 4,1 C 3,9 C 2,8 C 99 % 1007,0 hPa 0,0 l/m 0 min 0 min 0 W/m 16,1 km/h (3 Bft) 97,87 %
26.01.2019 03:14 4,1 C 3,9 C 2,8 C 99 % 1007,0 hPa 0,0 l/m 0 min 0 min 0 W/m 16,1 km/h (3 Bft) 97,83 %
26.01.2019 03:16 4,1 C 3,9 C 2,8 C 99 % 1007,0 hPa 0,0 l/m 0 min 0 min 0 W/m 9,7 km/h (2 Bft) 95,74 %
26.01.2019 03:18 4,1 C 3,9 C 2,8 C 99 % 1007,0 hPa 0,0 l/m 0 min 0 min 0 W/m 12,9 km/h (3 Bft) 95,74 %
26.01.2019 03:20 4,2 C 3,9 C 2,8 C 99 % 1007,0 hPa 0,0 l/m 0 min 0 min 0 W/m 12,9 km/h (3 Bft) 97,87 %
26.01.2019 03:22 4,2 C 3,9 C 2,8 C 99 % 1007,0 hPa 0,0 l/m 0 min 0 min 0 W/m 9,7 km/h (2 Bft) 97,87 %
26.01.2019 03:24 4,2 C 3,9 C 2,8 C 99 % 1007,0 hPa 0,0 l/m 0 min 0 min 0 W/m 19,3 km/h (3 Bft) 97,83 %
26.01.2019 03:26 4,2 C 3,9 C 2,8 C 99 % 1006,9 hPa 0,0 l/m 0 min 0 min 0 W/m 9,7 km/h (2 Bft) 93,62 %
26.01.2019 03:28 4,2 C 3,9 C 2,8 C 99 % 1007,0 hPa 0,0 l/m 0 min 0 min 0 W/m 16,1 km/h (3 Bft) 97,87 %
26.01.2019 03:30 4,2 C 3,9 C 2,8 C 99 % 1006,9 hPa 0,0 l/m 0 min 0 min 0 W/m 19,3 km/h (3 Bft) 97,87 %
26.01.2019 03:32 4,2 C 3,9 C 2,8 C 99 % 1006,8 hPa 0,0 l/m 0 min 0 min 0 W/m 9,7 km/h (2 Bft) 93,62 %
26.01.2019 03:34 4,2 C 3,9 C 2,8 C 99 % 1006,8 hPa 0,0 l/m 0 min 0 min 0 W/m 12,9 km/h (3 Bft) 100,00 %
26.01.2019 03:36 4,2 C 3,9 C 2,8 C 99 % 1006,8 hPa 0,0 l/m 0 min 0 min 0 W/m 12,9 km/h (3 Bft) 97,83 %
26.01.2019 03:38 4,2 C 3,9 C 2,8 C 99 % 1006,8 hPa 0,0 l/m 0 min 0 min 0 W/m 16,1 km/h (3 Bft) 95,74 %
26.01.2019 03:40 4,3 C 3,9 C 2,8 C 99 % 1006,9 hPa 0,0 l/m 0 min 0 min 0 W/m 12,9 km/h (3 Bft) 100,00 %
26.01.2019 03:42 4,3 C 3,9 C 2,8 C 99 % 1006,8 hPa 0,0 l/m 0 min 0 min 0 W/m 16,1 km/h (3 Bft) 97,87 %
26.01.2019 03:44 4,3 C 3,9 C 2,8 C 99 % 1006,8 hPa 0,0 l/m 0 min 0 min 0 W/m 9,7 km/h (2 Bft) 97,87 %
26.01.2019 03:46 4,3 C 3,9 C 2,8 C 99 % 1006,8 hPa 0,0 l/m 0 min 0 min 0 W/m 16,1 km/h (3 Bft) 97,87 %
26.01.2019 03:48 4,3 C 3,9 C 2,8 C 99 % 1006,8 hPa 0,0 l/m 0 min 0 min 0 W/m 12,9 km/h (3 Bft) 95,65 %
26.01.2019 03:50 4,3 C 3,9 C 3,3 C 99 % 1006,8 hPa 0,0 l/m 0 min 0 min 0 W/m 29,0 km/h (5 Bft) 100,00 %
26.01.2019 03:52 4,4 C 3,9 C 3,3 C 99 % 1006,8 hPa 0,0 l/m 0 min 0 min 0 W/m 12,9 km/h (3 Bft) 100,00 %
26.01.2019 03:54 4,4 C 3,9 C 3,3 C 99 % 1006,8 hPa 0,0 l/m 0 min 0 min 0 W/m 9,7 km/h (2 Bft) 97,87 %
26.01.2019 03:56 4,4 C 3,9 C 3,3 C 99 % 1006,9 hPa 0,0 l/m 0 min 0 min 0 W/m 12,9 km/h (3 Bft) 97,87 %
26.01.2019 03:58 4,4 C 3,9 C 3,3 C 99 % 1006,7 hPa 0,0 l/m 0 min 0 min 0 W/m 12,9 km/h (3 Bft) 97,87 %
26.01.2019 04:00 4,4 C 3,9 C 3,3 C 99 % 1006,9 hPa 0,0 l/m 0 min 0 min 0 W/m 16,1 km/h (3 Bft) 97,83 %
26.01.2019 04:05 4,5 C 3,9 C 3,3 C 99 % 1006,7 hPa 0,0 l/m 0 min 0 min 0 W/m 19,3 km/h (3 Bft) 98,00 %
26.01.2019 04:06 4,5 C 3,9 C 3,3 C 99 % 1006,7 hPa 0,0 l/m 0 min 0 min 0 W/m 6,4 km/h (2 Bft) 95,83 %
26.01.2019 04:08 4,5 C 3,9 C 3,3 C 99 % 1006,8 hPa 0,0 l/m 0 min 0 min 0 W/m 16,1 km/h (3 Bft) 97,14 %
26.01.2019 04:10 4,6 C 3,9 C 3,3 C 99 % 1006,8 hPa 0,0 l/m 0 min 0 min 0 W/m 9,7 km/h (2 Bft) 98,11 %
26.01.2019 04:12 4,6 C 3,9 C 3,3 C 99 % 1007,0 hPa 0,0 l/m 0 min 0 min 0 W/m 19,3 km/h (3 Bft) 97,87 %
26.01.2019 04:14 4,6 C 3,9 C 3,3 C 99 % 1006,8 hPa 0,0 l/m 0 min 0 min 0 W/m 19,3 km/h (3 Bft) 97,87 %
26.01.2019 04:16 4,6 C 3,9 C 3,3 C 99 % 1006,8 hPa 0,0 l/m 0 min 0 min 0 W/m 16,1 km/h (3 Bft) 97,87 %
26.01.2019 04:18 4,6 C 4,4 C 3,3 C 99 % 1006,8 hPa 0,0 l/m 0 min 0 min 0 W/m 16,1 km/h (3 Bft) 97,87 %
26.01.2019 04:20 4,6 C 4,4 C 3,3 C 99 % 1006,8 hPa 0,0 l/m 0 min 0 min 0 W/m 12,9 km/h (3 Bft) 97,87 %
26.01.2019 04:22 4,6 C 3,9 C 3,3 C 99 % 1006,7 hPa 0,0 l/m 0 min 0 min 0 W/m 12,9 km/h (3 Bft) 97,83 %
26.01.2019 04:24 4,6 C 4,4 C 3,3 C 99 % 1006,7 hPa 0,0 l/m 0 min 0 min 0 W/m 16,1 km/h (3 Bft) 97,87 %
26.01.2019 04:26 4,6 C 4,4 C 3,3 C 99 % 1006,8 hPa 0,0 l/m 0 min 0 min 0 W/m 16,1 km/h (3 Bft) 97,87 %
26.01.2019 04:28 4,7 C 3,9 C 3,3 C 99 % 1006,8 hPa 0,0 l/m 0 min 0 min 0 W/m 12,9 km/h (3 Bft) 97,87 %
26.01.2019 04:30 4,7 C 4,4 C 3,3 C 99 % 1006,8 hPa 0,0 l/m 0 min 0 min 0 W/m 19,3 km/h (3 Bft) 95,74 %
26.01.2019 04:32 4,7 C 4,4 C 3,3 C 99 % 1006,8 hPa 0,0 l/m 0 min 0 min 0 W/m 16,1 km/h (3 Bft) 95,74 %
26.01.2019 04:34 4,7 C 4,4 C 3,3 C 99 % 1006,8 hPa 0,0 l/m 0 min 0 min 0 W/m 9,7 km/h (2 Bft) 95,65 %
26.01.2019 04:36 4,7 C 4,4 C 3,3 C 99 % 1006,8 hPa 0,0 l/m 0 min 0 min 0 W/m 9,7 km/h (2 Bft) 93,22 %
26.01.2019 04:38 4,7 C 4,4 C 3,3 C 99 % 1006,7 hPa 0,0 l/m 0 min 0 min 0 W/m 16,1 km/h (3 Bft) 94,29 %
26.01.2019 04:40 4,7 C 4,4 C 3,3 C 99 % 1006,7 hPa 0,0 l/m 0 min 0 min 0 W/m 12,9 km/h (3 Bft) 95,74 %
26.01.2019 04:42 4,7 C 4,4 C 3,3 C 99 % 1006,7 hPa 0,0 l/m 0 min 0 min 0 W/m 16,1 km/h (3 Bft) 95,74 %
26.01.2019 04:44 4,7 C 4,4 C 3,3 C 99 % 1006,6 hPa 0,0 l/m 0 min 0 min 0 W/m 9,7 km/h (2 Bft) 95,74 %
26.01.2019 04:46 4,7 C 4,4 C 3,3 C 99 % 1006,7 hPa 0,0 l/m 0 min 0 min 0 W/m 16,1 km/h (3 Bft) 95,74 %
26.01.2019 04:48 4,7 C 4,4 C 3,3 C 99 % 1006,7 hPa 0,0 l/m 0 min 0 min 0 W/m 9,7 km/h (2 Bft) 97,87 %
26.01.2019 04:50 4,7 C 4,4 C 3,3 C 99 % 1006,6 hPa 0,0 l/m 0 min 0 min 0 W/m 12,9 km/h (3 Bft) 100,00 %
26.01.2019 04:52 4,7 C 4,4 C 3,3 C 99 % 1006,6 hPa 0,0 l/m 0 min 0 min 0 W/m 12,9 km/h (3 Bft) 97,87 %
26.01.2019 04:54 4,7 C 4,4 C 3,3 C 99 % 1006,5 hPa 0,0 l/m 0 min 0 min 0 W/m 12,9 km/h (3 Bft) 97,87 %
26.01.2019 04:56 4,7 C 4,4 C 3,3 C 99 % 1006,6 hPa 0,0 l/m 0 min 0 min 0 W/m 9,7 km/h (2 Bft) 95,74 %
26.01.2019 04:58 4,7 C 4,4 C 3,3 C 99 % 1006,6 hPa 0,0 l/m 0 min 0 min 0 W/m 16,1 km/h (3 Bft) 95,65 %
26.01.2019 05:00 4,7 C 4,4 C 3,3 C 99 % 1006,6 hPa 0,0 l/m 0 min 0 min 0 W/m 16,1 km/h (3 Bft) 95,74 %
26.01.2019 05:02 4,8 C 4,4 C 3,3 C 99 % 1006,6 hPa 0,0 l/m 0 min 0 min 0 W/m 16,1 km/h (3 Bft) 97,87 %
26.01.2019 05:04 4,8 C 4,4 C 3,3 C 99 % 1006,6 hPa 0,0 l/m 0 min 0 min 0 W/m 19,3 km/h (3 Bft) 97,87 %
26.01.2019 05:05 4,8 C 4,4 C 3,3 C 99 % 1006,7 hPa 0,0 l/m 0 min 0 min 0 W/m 19,3 km/h (3 Bft) 100,00 %
26.01.2019 05:12 4,8 C 4,4 C 3,3 C 99 % 1006,6 hPa 0,0 l/m 0 min 0 min 0 W/m 9,7 km/h (2 Bft) 100,00 %
26.01.2019 05:14 4,8 C 4,4 C 3,3 C 99 % 1006,6 hPa 0,0 l/m 0 min 0 min 0 W/m 16,1 km/h (3 Bft) 100,00 %
26.01.2019 05:16 4,8 C 4,4 C 3,3 C 99 % 1006,7 hPa 0,0 l/m 0 min 0 min 0 W/m 9,7 km/h (2 Bft) 100,00 %
26.01.2019 05:18 4,8 C 4,4 C 3,3 C 99 % 1006,7 hPa 0,0 l/m 0 min 0 min 0 W/m 16,1 km/h (3 Bft) 100,00 %
26.01.2019 05:20 4,8 C 4,4 C 3,3 C 99 % 1006,7 hPa 0,0 l/m 0 min 0 min 0 W/m 22,5 km/h (4 Bft) 100,00 %
26.01.2019 05:22 4,8 C 4,4 C 3,3 C 99 % 1006,7 hPa 0,0 l/m 0 min 0 min 0 W/m 9,7 km/h (2 Bft) 97,83 %
26.01.2019 05:24 4,8 C 4,4 C 3,3 C 99 % 1006,7 hPa 0,0 l/m 0 min 0 min 0 W/m 12,9 km/h (3 Bft) 100,00 %
26.01.2019 05:26 4,8 C 4,4 C 3,3 C 99 % 1006,7 hPa 0,0 l/m 0 min 0 min 0 W/m 12,9 km/h (3 Bft) 100,00 %
26.01.2019 05:28 4,8 C 4,4 C 3,3 C 99 % 1006,7 hPa 0,0 l/m 0 min 0 min 0 W/m 12,9 km/h (3 Bft) 100,00 %
26.01.2019 05:30 4,8 C 4,4 C 3,3 C 99 % 1006,6 hPa 0,0 l/m 0 min 0 min 0 W/m 9,7 km/h (2 Bft) 100,00 %
26.01.2019 05:32 4,8 C 4,4 C 3,3 C 99 % 1006,6 hPa 0,0 l/m 0 min 0 min 0 W/m 16,1 km/h (3 Bft) 100,00 %
26.01.2019 05:34 4,8 C 4,4 C 3,3 C 99 % 1006,6 hPa 0,0 l/m 0 min 0 min 0 W/m 22,5 km/h (4 Bft) 100,00 %
26.01.2019 05:36 4,9 C 4,4 C 3,3 C 99 % 1006,5 hPa 0,0 l/m 0 min 0 min 0 W/m 9,7 km/h (2 Bft) 100,00 %
26.01.2019 05:38 4,9 C 4,4 C 3,3 C 99 % 1006,5 hPa 0,0 l/m 0 min 0 min 0 W/m 22,5 km/h (4 Bft) 100,00 %
26.01.2019 05:40 4,9 C 4,4 C 3,3 C 99 % 1006,5 hPa 0,0 l/m 0 min 0 min 0 W/m 16,1 km/h (3 Bft) 100,00 %
26.01.2019 05:42 4,9 C 4,4 C 3,9 C 99 % 1006,5 hPa 0,0 l/m 0 min 0 min 0 W/m 16,1 km/h (3 Bft) 100,00 %
26.01.2019 05:44 4,9 C 4,4 C 3,9 C 99 % 1006,5 hPa 0,0 l/m 0 min 0 min 0 W/m 9,7 km/h (2 Bft) 100,00 %
26.01.2019 05:46 4,9 C 4,4 C 3,9 C 99 % 1006,4 hPa 0,0 l/m 0 min 0 min 0 W/m 16,1 km/h (3 Bft) 100,00 %
26.01.2019 05:48 4,9 C 4,4 C 3,9 C 99 % 1006,4 hPa 0,0 l/m 0 min 0 min 0 W/m 12,9 km/h (3 Bft) 100,00 %
26.01.2019 05:50 4,9 C 4,4 C 3,9 C 99 % 1006,4 hPa 0,0 l/m 0 min 0 min 0 W/m 12,9 km/h (3 Bft) 100,00 %
26.01.2019 05:52 4,9 C 4,4 C 3,9 C 99 % 1006,4 hPa 0,0 l/m 0 min 0 min 0 W/m 16,1 km/h (3 Bft) 100,00 %
26.01.2019 05:54 5,0 C 4,4 C 3,9 C 99 % 1006,4 hPa 0,0 l/m 0 min 0 min 0 W/m 25,7 km/h (4 Bft) 97,87 %
26.01.2019 05:56 5,0 C 4,4 C 3,9 C 99 % 1006,4 hPa 0,0 l/m 0 min 0 min 0 W/m 16,1 km/h (3 Bft) 93,62 %
26.01.2019 05:58 5,0 C 4,4 C 3,9 C 99 % 1006,3 hPa 0,0 l/m 0 min 0 min 0 W/m 19,3 km/h (3 Bft) 95,74 %
26.01.2019 06:00 5,0 C 4,4 C 3,9 C 99 % 1006,3 hPa 0,0 l/m 0 min 0 min 0 W/m 25,7 km/h (4 Bft) 97,83 %
26.01.2019 06:02 5,1 C 4,4 C 3,9 C 99 % 1006,3 hPa 0,0 l/m 0 min 0 min 0 W/m 16,1 km/h (3 Bft) 95,74 %
26.01.2019 06:04 5,1 C 4,4 C 3,9 C 99 % 1006,2 hPa 0,0 l/m 0 min 0 min 0 W/m 19,3 km/h (3 Bft) 97,87 %
26.01.2019 06:08 5,1 C 4,4 C 3,9 C 99 % 1006,3 hPa 0,0 l/m 0 min 0 min 0 W/m 19,3 km/h (3 Bft) 98,00 %
26.01.2019 06:10 5,1 C 4,4 C 3,9 C 99 % 1006,3 hPa 0,0 l/m 0 min 0 min 0 W/m 16,1 km/h (3 Bft) 95,74 %
26.01.2019 06:12 5,1 C 4,4 C 3,9 C 99 % 1006,2 hPa 0,0 l/m 0 min 0 min 0 W/m 16,1 km/h (3 Bft) 97,83 %
26.01.2019 06:14 5,1 C 4,4 C 3,9 C 99 % 1006,2 hPa 0,0 l/m 0 min 0 min 0 W/m 22,5 km/h (4 Bft) 97,87 %
26.01.2019 06:16 5,1 C 4,4 C 3,9 C 99 % 1006,1 hPa 0,0 l/m 0 min 0 min 0 W/m 29,0 km/h (5 Bft) 95,74 %
26.01.2019 06:18 5,1 C 4,4 C 3,9 C 99 % 1006,2 hPa 0,0 l/m 0 min 0 min 0 W/m 29,0 km/h (5 Bft) 97,87 %
26.01.2019 06:20 5,1 C 4,4 C 3,9 C 99 % 1006,0 hPa 0,0 l/m 0 min 0 min 0 W/m 9,7 km/h (2 Bft) 97,87 %
26.01.2019 06:22 5,1 C 4,4 C 3,9 C 99 % 1006,0 hPa 0,0 l/m 0 min 0 min 0 W/m 12,9 km/h (3 Bft) 97,83 %
26.01.2019 06:24 5,1 C 4,4 C 3,9 C 99 % 1005,9 hPa 0,0 l/m 0 min 0 min 0 W/m 19,3 km/h (3 Bft) 97,87 %
26.01.2019 06:26 5,2 C 4,4 C 3,9 C 99 % 1005,9 hPa 0,0 l/m 0 min 0 min 0 W/m 16,1 km/h (3 Bft) 97,87 %
26.01.2019 06:28 5,2 C 4,4 C 3,9 C 99 % 1005,8 hPa 0,0 l/m 0 min 0 min 0 W/m 16,1 km/h (3 Bft) 97,87 %
26.01.2019 06:30 5,2 C 4,4 C 3,9 C 99 % 1005,9 hPa 0,0 l/m 0 min 0 min 0 W/m 19,3 km/h (3 Bft) 97,87 %
26.01.2019 06:32 5,2 C 4,4 C 3,9 C 99 % 1005,8 hPa 0,0 l/m 0 min 0 min 0 W/m 16,1 km/h (3 Bft) 97,87 %
26.01.2019 06:34 5,2 C 4,4 C 3,9 C 99 % 1005,9 hPa 0,0 l/m 0 min 0 min 0 W/m 16,1 km/h (3 Bft) 97,87 %
26.01.2019 06:36 5,2 C 5,0 C 3,9 C 99 % 1005,7 hPa 0,0 l/m 0 min 0 min 0 W/m 16,1 km/h (3 Bft) 95,65 %
26.01.2019 06:38 5,2 C 5,0 C 3,9 C 99 % 1005,8 hPa 0,0 l/m 0 min 0 min 0 W/m 19,3 km/h (3 Bft) 98,00 %
26.01.2019 06:40 5,2 C 4,4 C 3,9 C 99 % 1005,7 hPa 0,0 l/m 0 min 0 min 0 W/m 22,5 km/h (4 Bft) 93,62 %
26.01.2019 06:42 5,2 C 5,0 C 3,9 C 99 % 1005,8 hPa 0,0 l/m 0 min 0 min 0 W/m 22,5 km/h (4 Bft) 93,62 %
26.01.2019 06:44 5,2 C 5,0 C 3,9 C 99 % 1005,8 hPa 0,0 l/m 0 min 0 min 0 W/m 16,1 km/h (3 Bft) 95,74 %
26.01.2019 06:46 5,2 C 5,0 C 3,9 C 99 % 1006,0 hPa 0,0 l/m 0 min 0 min 0 W/m 16,1 km/h (3 Bft) 97,83 %
26.01.2019 06:48 5,2 C 5,0 C 3,9 C 99 % 1005,9 hPa 0,0 l/m 0 min 0 min 0 W/m 12,9 km/h (3 Bft) 95,74 %
26.01.2019 06:50 5,2 C 5,0 C 3,9 C 99 % 1006,0 hPa 0,0 l/m 0 min 0 min 0 W/m 22,5 km/h (4 Bft) 97,87 %
26.01.2019 06:52 5,2 C 5,0 C 3,9 C 99 % 1005,9 hPa 0,0 l/m 0 min 0 min 0 W/m 16,1 km/h (3 Bft) 97,87 %
26.01.2019 06:54 5,2 C 5,0 C 3,9 C 99 % 1006,1 hPa 0,0 l/m 0 min 0 min 0 W/m 25,7 km/h (4 Bft) 97,87 %
26.01.2019 06:56 5,3 C 5,0 C 3,9 C 99 % 1006,0 hPa 0,0 l/m 0 min 0 min 0 W/m 29,0 km/h (5 Bft) 100,00 %
26.01.2019 06:58 5,3 C 5,0 C 3,9 C 99 % 1005,9 hPa 0,0 l/m 0 min 0 min 0 W/m 16,1 km/h (3 Bft) 100,00 %
26.01.2019 07:00 5,3 C 5,0 C 3,9 C 99 % 1006,0 hPa 0,0 l/m 0 min 0 min 0 W/m 12,9 km/h (3 Bft) 93,62 %
26.01.2019 07:02 5,3 C 5,0 C 3,9 C 99 % 1006,1 hPa 0,0 l/m 0 min 0 min 0 W/m 25,7 km/h (4 Bft) 93,62 %
26.01.2019 07:04 5,3 C 5,0 C 3,9 C 99 % 1006,1 hPa 0,0 l/m 0 min 0 min 0 W/m 16,1 km/h (3 Bft) 95,74 %
26.01.2019 07:06 5,3 C 5,0 C 3,9 C 99 % 1006,1 hPa 0,0 l/m 0 min 0 min 0 W/m 25,7 km/h (4 Bft) 95,74 %
26.01.2019 07:08 5,3 C 5,0 C 3,9 C 99 % 1006,1 hPa 0,0 l/m 0 min 0 min 0 W/m 22,5 km/h (4 Bft) 95,74 %
26.01.2019 07:10 5,3 C 5,0 C 3,9 C 99 % 1006,1 hPa 0,0 l/m 0 min 0 min 0 W/m 19,3 km/h (3 Bft) 93,88 %
26.01.2019 07:12 5,3 C 5,0 C 3,9 C 99 % 1006,0 hPa 0,0 l/m 0 min 0 min 0 W/m 16,1 km/h (3 Bft) 93,62 %
26.01.2019 07:14 5,3 C 5,0 C 3,9 C 99 % 1006,0 hPa 0,0 l/m 0 min 0 min 0 W/m 16,1 km/h (3 Bft) 93,62 %
26.01.2019 07:16 5,3 C 5,0 C 3,9 C 99 % 1006,0 hPa 0,0 l/m 0 min 0 min 0 W/m 12,9 km/h (3 Bft) 95,74 %
26.01.2019 07:18 5,3 C 5,0 C 3,9 C 99 % 1006,0 hPa 0,0 l/m 0 min 0 min 0 W/m 16,1 km/h (3 Bft) 95,65 %
26.01.2019 07:20 5,3 C 5,0 C 3,9 C 99 % 1006,0 hPa 0,0 l/m 0 min 0 min 0 W/m 12,9 km/h (3 Bft) 95,74 %
26.01.2019 07:22 5,3 C 5,0 C 3,9 C 99 % 1006,1 hPa 0,0 l/m 0 min 0 min 0 W/m 12,9 km/h (3 Bft) 93,62 %
26.01.2019 07:24 5,3 C 5,0 C 3,9 C 99 % 1006,1 hPa 0,0 l/m 0 min 0 min 0 W/m 16,1 km/h (3 Bft) 95,74 %
26.01.2019 07:26 5,3 C 5,0 C 3,9 C 99 % 1006,0 hPa 0,0 l/m 0 min 0 min 0 W/m 16,1 km/h (3 Bft) 95,74 %
26.01.2019 07:28 5,3 C 5,0 C 3,9 C 99 % 1005,8 hPa 0,0 l/m 0 min 0 min 0 W/m 16,1 km/h (3 Bft) 93,62 %
26.01.2019 07:30 5,4 C 5,0 C 3,9 C 99 % 1005,9 hPa 0,0 l/m 0 min 0 min 0 W/m 16,1 km/h (3 Bft) 95,65 %
26.01.2019 07:32 5,3 C 5,0 C 3,9 C 99 % 1005,9 hPa 0,0 l/m 0 min 0 min 0 W/m 25,7 km/h (4 Bft) 95,74 %
26.01.2019 07:34 5,4 C 5,0 C 3,9 C 99 % 1005,9 hPa 0,0 l/m 0 min 0 min 0 W/m 16,1 km/h (3 Bft) 91,49 %
26.01.2019 07:36 5,4 C 5,0 C 3,9 C 99 % 1005,9 hPa 0,0 l/m 0 min 0 min 0 W/m 6,4 km/h (2 Bft) 95,74 %
26.01.2019 07:38 5,4 C 5,0 C 3,9 C 99 % 1005,9 hPa 0,0 l/m 0 min 0 min 0 W/m 19,3 km/h (3 Bft) 95,74 %
26.01.2019 07:40 5,3 C 5,0 C 3,9 C 99 % 1005,9 hPa 0,0 l/m 0 min 0 min 0 W/m 19,3 km/h (3 Bft) 94,29 %
26.01.2019 07:42 5,4 C 5,0 C 3,9 C 99 % 1006,0 hPa 0,0 l/m 0 min 0 min 0 W/m 16,1 km/h (3 Bft) 95,74 %
26.01.2019 07:44 5,4 C 5,0 C 3,9 C 99 % 1005,8 hPa 0,0 l/m 0 min 0 min 0 W/m 9,7 km/h (2 Bft) 97,87 %
26.01.2019 07:46 5,3 C 5,0 C 3,9 C 99 % 1005,8 hPa 0,0 l/m 0 min 0 min 0 W/m 16,1 km/h (3 Bft) 97,83 %
26.01.2019 07:48 5,4 C 5,0 C 3,9 C 99 % 1005,9 hPa 0,0 l/m 0 min 0 min 0 W/m 16,1 km/h (3 Bft) 97,87 %
26.01.2019 07:50 5,3 C 5,0 C 3,9 C 99 % 1005,8 hPa 0,0 l/m 0 min 0 min 0 W/m 16,1 km/h (3 Bft) 95,74 %
26.01.2019 07:52 5,3 C 5,0 C 3,9 C 99 % 1005,9 hPa 0,0 l/m 0 min 0 min 0 W/m 12,9 km/h (3 Bft) 97,87 %
26.01.2019 07:54 5,3 C 5,0 C 3,9 C 99 % 1005,9 hPa 0,0 l/m 0 min 0 min 0 W/m 16,1 km/h (3 Bft) 97,87 %
26.01.2019 07:56 5,3 C 5,0 C 3,9 C 99 % 1006,0 hPa 0,0 l/m 0 min 0 min 0 W/m 19,3 km/h (3 Bft) 100,00 %
26.01.2019 07:58 5,3 C 5,0 C 3,9 C 99 % 1005,9 hPa 0,0 l/m 0 min 0 min 0 W/m 12,9 km/h (3 Bft) 100,00 %
26.01.2019 08:00 5,3 C 5,0 C 3,9 C 99 % 1006,0 hPa 0,0 l/m 0 min 0 min 0 W/m 19,3 km/h (3 Bft) 100,00 %
26.01.2019 08:02 5,3 C 5,0 C 3,9 C 99 % 1005,9 hPa 0,0 l/m 0 min 0 min 0 W/m 16,1 km/h (3 Bft) 100,00 %
26.01.2019 08:04 5,3 C 5,0 C 3,9 C 99 % 1006,0 hPa 0,0 l/m 0 min 0 min 0 W/m 16,1 km/h (3 Bft) 100,00 %
26.01.2019 08:06 5,3 C 5,0 C 3,9 C 99 % 1005,9 hPa 0,0 l/m 0 min 0 min 0 W/m 16,1 km/h (3 Bft) 100,00 %
26.01.2019 08:08 5,3 C 5,0 C 3,9 C 99 % 1005,9 hPa 0,0 l/m 0 min 0 min 0 W/m 16,1 km/h (3 Bft) 100,00 %
26.01.2019 08:10 5,3 C 5,0 C 3,9 C 99 % 1006,0 hPa 0,0 l/m 0 min 0 min 0 W/m 19,3 km/h (3 Bft) 100,00 %
26.01.2019 08:12 5,3 C 5,0 C 3,9 C 99 % 1005,8 hPa 0,0 l/m 0 min 0 min 0 W/m 16,1 km/h (3 Bft) 100,00 %
26.01.2019 08:14 5,3 C 5,0 C 3,9 C 99 % 1005,9 hPa 0,0 l/m 0 min 0 min 0 W/m 32,2 km/h (5 Bft) 97,87 %
26.01.2019 08:16 5,3 C 5,0 C 3,9 C 99 % 1006,0 hPa 0,0 l/m 0 min 0 min 0 W/m 19,3 km/h (3 Bft) 100,00 %
26.01.2019 08:18 5,3 C 5,0 C 3,9 C 99 % 1005,9 hPa 0,0 l/m 0 min 0 min 0 W/m 22,5 km/h (4 Bft) 100,00 %
26.01.2019 08:20 5,3 C 5,0 C 3,9 C 99 % 1005,9 hPa 0,0 l/m 0 min 0 min 0 W/m 19,3 km/h (3 Bft) 100,00 %
26.01.2019 08:22 5,3 C 5,0 C 3,9 C 99 % 1005,8 hPa 0,0 l/m 0 min 0 min 0 W/m 22,5 km/h (4 Bft) 100,00 %
26.01.2019 08:24 5,3 C 5,0 C 3,9 C 99 % 1005,8 hPa 0,0 l/m 0 min 0 min 0 W/m 12,9 km/h (3 Bft) 100,00 %
26.01.2019 08:26 5,3 C 5,0 C 3,9 C 99 % 1005,7 hPa 0,0 l/m 0 min 0 min 0 W/m 12,9 km/h (3 Bft) 100,00 %
26.01.2019 08:28 5,3 C 5,0 C 3,9 C 99 % 1005,7 hPa 0,0 l/m 0 min 0 min 0 W/m 22,5 km/h (4 Bft) 100,00 %
26.01.2019 08:30 5,3 C 5,0 C 3,9 C 99 % 1005,7 hPa 0,0 l/m 0 min 0 min 0 W/m 16,1 km/h (3 Bft) 100,00 %
26.01.2019 08:32 5,3 C 5,0 C 3,9 C 99 % 1005,7 hPa 0,0 l/m 0 min 0 min 0 W/m 25,7 km/h (4 Bft) 100,00 %
26.01.2019 08:34 5,3 C 5,0 C 3,9 C 99 % 1005,7 hPa 0,0 l/m 0 min 0 min 0 W/m 9,7 km/h (2 Bft) 100,00 %
26.01.2019 08:36 5,3 C 5,0 C 3,9 C 99 % 1005,7 hPa 0,0 l/m 0 min 0 min 0 W/m 25,7 km/h (4 Bft) 100,00 %
26.01.2019 08:38 5,3 C 5,0 C 3,9 C 99 % 1005,7 hPa 0,0 l/m 0 min 0 min 0 W/m 22,5 km/h (4 Bft) 100,00 %
26.01.2019 08:40 5,3 C 5,0 C 3,9 C 99 % 1005,7 hPa 0,0 l/m 0 min 0 min 0 W/m 22,5 km/h (4 Bft) 97,87 %
26.01.2019 08:42 5,3 C 5,0 C 3,9 C 99 % 1005,7 hPa 0,0 l/m 0 min 0 min 3 W/m 16,1 km/h (3 Bft) 100,00 %
26.01.2019 08:44 5,3 C 5,0 C 3,9 C 99 % 1005,6 hPa 0,0 l/m 0 min 0 min 5 W/m 16,1 km/h (3 Bft) 100,00 %
26.01.2019 08:46 5,3 C 5,0 C 3,9 C 99 % 1005,6 hPa 0,0 l/m 0 min 0 min 5 W/m 35,4 km/h (5 Bft) 100,00 %
26.01.2019 08:48 5,3 C 5,0 C 4,4 C 99 % 1005,7 hPa 0,0 l/m 0 min 0 min 5 W/m 16,1 km/h (3 Bft) 97,87 %
26.01.2019 08:50 5,3 C 5,0 C 3,9 C 99 % 1005,8 hPa 0,0 l/m 0 min 0 min 6 W/m 22,5 km/h (4 Bft) 100,00 %
26.01.2019 08:52 5,3 C 5,0 C 3,9 C 99 % 1005,8 hPa 0,0 l/m 0 min 0 min 7 W/m 16,1 km/h (3 Bft) 100,00 %
26.01.2019 08:54 5,3 C 5,0 C 3,9 C 99 % 1005,8 hPa 0,0 l/m 0 min 0 min 7 W/m 16,1 km/h (3 Bft) 100,00 %
26.01.2019 08:56 5,3 C 5,0 C 3,9 C 99 % 1005,7 hPa 0,0 l/m 0 min 0 min 7 W/m 32,2 km/h (5 Bft) 100,00 %
26.01.2019 08:58 5,3 C 5,0 C 3,9 C 99 % 1005,7 hPa 0,0 l/m 0 min 0 min 7 W/m 22,5 km/h (4 Bft) 100,00 %
26.01.2019 09:00 5,4 C 5,0 C 3,9 C 99 % 1005,7 hPa 0,0 l/m 0 min 0 min 7 W/m 25,7 km/h (4 Bft) 100,00 %
26.01.2019 09:02 5,4 C 5,0 C 3,9 C 99 % 1005,7 hPa 0,0 l/m 0 min 0 min 7 W/m 19,3 km/h (3 Bft) 97,87 %
26.01.2019 09:04 5,4 C 5,0 C 4,4 C 99 % 1005,7 hPa 0,0 l/m 0 min 0 min 9 W/m 29,0 km/h (5 Bft) 100,00 %
26.01.2019 09:06 5,4 C 5,0 C 4,4 C 99 % 1005,7 hPa 0,0 l/m 0 min 0 min 7 W/m 32,2 km/h (5 Bft) 100,00 %
26.01.2019 09:08 5,4 C 5,0 C 4,4 C 99 % 1005,7 hPa 0,0 l/m 0 min 0 min 7 W/m 19,3 km/h (3 Bft) 97,87 %
26.01.2019 09:10 5,4 C 5,0 C 4,4 C 99 % 1005,7 hPa 0,0 l/m 0 min 0 min 9 W/m 19,3 km/h (3 Bft) 98,00 %
26.01.2019 09:12 5,4 C 5,0 C 4,4 C 99 % 1005,7 hPa 0,0 l/m 0 min 0 min 8 W/m 29,0 km/h (5 Bft) 97,87 %
26.01.2019 09:14 5,4 C 5,0 C 4,4 C 99 % 1005,7 hPa 0,0 l/m 0 min 0 min 8 W/m 16,1 km/h (3 Bft) 97,92 %
26.01.2019 09:16 5,4 C 5,0 C 4,4 C 99 % 1005,6 hPa 0,0 l/m 0 min 0 min 8 W/m 22,5 km/h (4 Bft) 97,83 %
26.01.2019 09:18 5,4 C 5,0 C 4,4 C 99 % 1005,6 hPa 0,0 l/m 0 min 0 min 7 W/m 22,5 km/h (4 Bft) 97,87 %
26.01.2019 09:20 5,4 C 5,0 C 4,4 C 99 % 1005,6 hPa 0,0 l/m 0 min 0 min 8 W/m 25,7 km/h (4 Bft) 97,87 %
26.01.2019 09:22 5,4 C 5,0 C 4,4 C 99 % 1005,6 hPa 0,0 l/m 0 min 0 min 9 W/m 22,5 km/h (4 Bft) 95,74 %
26.01.2019 09:24 5,4 C 5,0 C 4,4 C 99 % 1005,6 hPa 0,0 l/m 0 min 0 min 11 W/m 19,3 km/h (3 Bft) 93,62 %
26.01.2019 09:26 5,4 C 5,0 C 3,9 C 99 % 1005,6 hPa 0,0 l/m 0 min 0 min 14 W/m 16,1 km/h (3 Bft) 97,83 %
26.01.2019 09:28 5,4 C 5,0 C 3,9 C 99 % 1005,6 hPa 0,0 l/m 0 min 0 min 16 W/m 22,5 km/h (4 Bft) 97,87 %
26.01.2019 09:30 5,4 C 5,0 C 3,9 C 99 % 1005,6 hPa 0,0 l/m 0 min 0 min 20 W/m 12,9 km/h (3 Bft) 95,74 %
26.01.2019 09:32 5,4 C 5,0 C 3,9 C 99 % 1005,7 hPa 0,0 l/m 0 min 0 min 22 W/m 16,1 km/h (3 Bft) 93,62 %
26.01.2019 09:34 5,4 C 5,0 C 3,9 C 99 % 1005,7 hPa 0,0 l/m 0 min 0 min 20 W/m 19,3 km/h (3 Bft) 95,74 %
26.01.2019 09:36 5,4 C 5,0 C 3,9 C 99 % 1005,7 hPa 0,0 l/m 0 min 0 min 20 W/m 19,3 km/h (3 Bft) 95,74 %
26.01.2019 09:38 5,4 C 5,0 C 4,4 C 99 % 1005,7 hPa 0,0 l/m 0 min 0 min 23 W/m 12,9 km/h (3 Bft) 93,48 %
26.01.2019 09:40 5,4 C 5,0 C 4,4 C 99 % 1005,7 hPa 0,0 l/m 0 min 0 min 24 W/m 22,5 km/h (4 Bft) 97,22 %
26.01.2019 09:42 5,4 C 5,0 C 4,4 C 99 % 1005,7 hPa 0,0 l/m 0 min 0 min 23 W/m 12,9 km/h (3 Bft) 93,48 %
26.01.2019 09:44 5,4 C 5,0 C 4,4 C 99 % 1005,6 hPa 0,0 l/m 0 min 0 min 25 W/m 12,9 km/h (3 Bft) 95,74 %
26.01.2019 09:46 5,4 C 5,0 C 4,4 C 99 % 1005,6 hPa 0,0 l/m 0 min 0 min 24 W/m 22,5 km/h (4 Bft) 93,62 %
26.01.2019 09:48 5,4 C 5,0 C 4,4 C 99 % 1005,7 hPa 0,0 l/m 0 min 0 min 21 W/m 19,3 km/h (3 Bft) 93,62 %
26.01.2019 09:50 5,4 C 5,0 C 4,4 C 99 % 1005,7 hPa 0,0 l/m 0 min 0 min 21 W/m 29,0 km/h (5 Bft) 89,36 %
26.01.2019 09:52 5,4 C 5,0 C 4,4 C 99 % 1005,8 hPa 0,0 l/m 0 min 0 min 20 W/m 16,1 km/h (3 Bft) 93,62 %
26.01.2019 09:54 5,4 C 5,0 C 4,4 C 99 % 1005,8 hPa 0,0 l/m 0 min 0 min 18 W/m 12,9 km/h (3 Bft) 93,48 %
26.01.2019 09:56 5,4 C 5,0 C 4,4 C 99 % 1005,7 hPa 0,0 l/m 0 min 0 min 21 W/m 16,1 km/h (3 Bft) 93,62 %
26.01.2019 09:58 5,4 C 5,0 C 4,4 C 99 % 1005,7 hPa 0,0 l/m 0 min 0 min 19 W/m 9,7 km/h (2 Bft) 95,74 %
26.01.2019 10:00 5,4 C 5,0 C 4,4 C 99 % 1005,7 hPa 0,0 l/m 0 min 0 min 20 W/m 16,1 km/h (3 Bft) 95,74 %
26.01.2019 10:02 5,4 C 5,0 C 4,4 C 99 % 1005,6 hPa 0,0 l/m 0 min 0 min 22 W/m 16,1 km/h (3 Bft) 95,74 %
26.01.2019 10:04 5,4 C 5,0 C 4,4 C 99 % 1005,7 hPa 0,0 l/m 0 min 0 min 24 W/m 22,5 km/h (4 Bft) 97,83 %
26.01.2019 10:06 5,4 C 5,0 C 4,4 C 99 % 1005,7 hPa 0,0 l/m 0 min 0 min 24 W/m 19,3 km/h (3 Bft) 93,22 %
26.01.2019 10:08 5,4 C 5,0 C 4,4 C 99 % 1005,7 hPa 0,0 l/m 0 min 0 min 23 W/m 9,7 km/h (2 Bft) 92,86 %
26.01.2019 10:10 5,4 C 5,0 C 4,4 C 99 % 1005,7 hPa 0,0 l/m 0 min 0 min 26 W/m 12,9 km/h (3 Bft) 96,00 %
26.01.2019 10:12 5,4 C 5,0 C 4,4 C 99 % 1005,8 hPa 0,0 l/m 0 min 0 min 26 W/m 19,3 km/h (3 Bft) 95,74 %
26.01.2019 10:14 5,4 C 5,0 C 4,4 C 99 % 1005,8 hPa 0,0 l/m 0 min 0 min 25 W/m 16,1 km/h (3 Bft) 97,87 %
26.01.2019 10:16 5,4 C 5,0 C 4,4 C 99 % 1005,7 hPa 0,0 l/m 0 min 0 min 28 W/m 16,1 km/h (3 Bft) 97,83 %
26.01.2019 10:18 5,4 C 5,0 C 4,4 C 99 % 1005,8 hPa 0,0 l/m 0 min 0 min 27 W/m 12,9 km/h (3 Bft) 95,74 %
26.01.2019 10:20 5,4 C 5,0 C 4,4 C 99 % 1005,8 hPa 0,0 l/m 0 min 0 min 26 W/m 9,7 km/h (2 Bft) 97,87 %
26.01.2019 10:22 5,4 C 5,0 C 4,4 C 99 % 1005,8 hPa 0,0 l/m 0 min 0 min 27 W/m 16,1 km/h (3 Bft) 97,87 %
26.01.2019 10:24 5,4 C 5,0 C 4,4 C 99 % 1005,8 hPa 0,0 l/m 0 min 0 min 29 W/m 19,3 km/h (3 Bft) 97,87 %
26.01.2019 10:26 5,4 C 5,0 C 4,4 C 99 % 1005,9 hPa 0,0 l/m 0 min 0 min 30 W/m 16,1 km/h (3 Bft) 97,83 %
26.01.2019 10:28 5,4 C 5,0 C 4,4 C 99 % 1005,8 hPa 0,0 l/m 0 min 0 min 30 W/m 19,3 km/h (3 Bft) 97,87 %
26.01.2019 10:30 5,4 C 5,0 C 4,4 C 99 % 1005,7 hPa 0,0 l/m 0 min 0 min 32 W/m 19,3 km/h (3 Bft) 95,74 %
26.01.2019 10:32 5,4 C 5,0 C 4,4 C 99 % 1005,7 hPa 0,0 l/m 0 min 0 min 34 W/m 22,5 km/h (4 Bft) 97,87 %
26.01.2019 10:34 5,4 C 5,0 C 4,4 C 99 % 1005,7 hPa 0,0 l/m 0 min 0 min 36 W/m 19,3 km/h (3 Bft) 97,87 %
26.01.2019 10:36 5,4 C 5,0 C 4,4 C 99 % 1005,7 hPa 0,0 l/m 0 min 0 min 37 W/m 12,9 km/h (3 Bft) 97,87 %
26.01.2019 10:38 5,4 C 5,0 C 4,4 C 99 % 1005,8 hPa 0,0 l/m 0 min 0 min 37 W/m 19,3 km/h (3 Bft) 97,87 %
26.01.2019 10:40 5,5 C 5,6 C 4,4 C 99 % 1005,8 hPa 0,0 l/m 0 min 0 min 42 W/m 9,7 km/h (2 Bft) 97,92 %
26.01.2019 10:42 5,5 C 5,6 C 4,4 C 99 % 1005,8 hPa 0,0 l/m 0 min 0 min 46 W/m 25,7 km/h (4 Bft) 95,74 %
26.01.2019 10:44 5,5 C 5,6 C 4,4 C 99 % 1005,7 hPa 0,0 l/m 0 min 0 min 54 W/m 19,3 km/h (3 Bft) 97,87 %
26.01.2019 10:46 5,5 C 5,6 C 4,4 C 99 % 1005,8 hPa 0,0 l/m 0 min 0 min 60 W/m 25,7 km/h (4 Bft) 97,87 %
26.01.2019 10:48 5,5 C 5,6 C 4,4 C 99 % 1005,8 hPa 0,0 l/m 0 min 0 min 50 W/m 16,1 km/h (3 Bft) 97,83 %
26.01.2019 10:50 5,5 C 5,6 C 4,4 C 99 % 1005,7 hPa 0,0 l/m 0 min 0 min 51 W/m 16,1 km/h (3 Bft) 97,87 %
26.01.2019 10:52 5,6 C 5,6 C 4,4 C 99 % 1005,7 hPa 0,0 l/m 0 min 0 min 51 W/m 22,5 km/h (4 Bft) 97,87 %
26.01.2019 10:54 5,6 C 5,6 C 4,4 C 99 % 1005,7 hPa 0,0 l/m 0 min 0 min 45 W/m 16,1 km/h (3 Bft) 97,87 %
26.01.2019 10:56 5,5 C 5,6 C 4,4 C 99 % 1005,7 hPa 0,0 l/m 0 min 0 min 46 W/m 19,3 km/h (3 Bft) 95,74 %
26.01.2019 10:58 5,6 C 5,6 C 4,4 C 99 % 1005,8 hPa 0,0 l/m 0 min 0 min 45 W/m 16,1 km/h (3 Bft) 89,36 %
26.01.2019 11:00 5,6 C 5,6 C 4,4 C 99 % 1005,9 hPa 0,0 l/m 0 min 0 min 38 W/m 16,1 km/h (3 Bft) 97,83 %
26.01.2019 11:02 5,6 C 5,6 C 4,4 C 99 % 1005,8 hPa 0,0 l/m 0 min 0 min 35 W/m 16,1 km/h (3 Bft) 97,87 %
26.01.2019 11:04 5,6 C 5,6 C 4,4 C 99 % 1005,7 hPa 0,0 l/m 0 min 0 min 39 W/m 12,9 km/h (3 Bft) 100,00 %
26.01.2019 11:06 5,6 C 5,6 C 4,4 C 99 % 1005,8 hPa 0,0 l/m 0 min 0 min 35 W/m 19,3 km/h (3 Bft) 100,00 %
26.01.2019 11:08 5,6 C 5,6 C 4,4 C 99 % 1005,8 hPa 0,0 l/m 0 min 0 min 36 W/m 22,5 km/h (4 Bft) 100,00 %
26.01.2019 11:10 5,6 C 5,6 C 4,4 C 99 % 1005,8 hPa 0,0 l/m 0 min 0 min 37 W/m 9,7 km/h (2 Bft) 100,00 %
26.01.2019 11:12 5,6 C 5,6 C 4,4 C 99 % 1005,7 hPa 0,0 l/m 0 min 0 min 36 W/m 16,1 km/h (3 Bft) 100,00 %
26.01.2019 11:14 5,6 C 5,6 C 4,4 C 99 % 1005,8 hPa 0,0 l/m 0 min 0 min 38 W/m 9,7 km/h (2 Bft) 100,00 %
26.01.2019 11:16 5,6 C 5,6 C 4,4 C 99 % 1005,7 hPa 0,0 l/m 0 min 0 min 40 W/m 12,9 km/h (3 Bft) 100,00 %
26.01.2019 11:18 5,6 C 5,6 C 4,4 C 99 % 1005,7 hPa 0,0 l/m 0 min 0 min 43 W/m 6,4 km/h (2 Bft) 97,87 %
26.01.2019 11:20 5,6 C 5,6 C 4,4 C 99 % 1005,6 hPa 0,0 l/m 0 min 0 min 41 W/m 12,9 km/h (3 Bft) 100,00 %
26.01.2019 11:22 5,6 C 5,6 C 4,4 C 99 % 1005,6 hPa 0,0 l/m 0 min 0 min 39 W/m 19,3 km/h (3 Bft) 100,00 %
26.01.2019 11:24 5,7 C 5,6 C 4,4 C 99 % 1005,6 hPa 0,0 l/m 0 min 0 min 39 W/m 12,9 km/h (3 Bft) 100,00 %
26.01.2019 11:26 5,7 C 5,6 C 4,4 C 99 % 1005,6 hPa 0,0 l/m 0 min 0 min 51 W/m 9,7 km/h (2 Bft) 100,00 %
26.01.2019 11:28 5,7 C 5,6 C 4,4 C 99 % 1005,6 hPa 0,0 l/m 0 min 0 min 47 W/m 22,5 km/h (4 Bft) 100,00 %
26.01.2019 11:30 5,7 C 5,6 C 5,0 C 99 % 1005,6 hPa 0,0 l/m 0 min 0 min 48 W/m 19,3 km/h (3 Bft) 100,00 %
26.01.2019 11:32 5,7 C 5,6 C 5,0 C 99 % 1005,5 hPa 0,0 l/m 0 min 0 min 52 W/m 19,3 km/h (3 Bft) 100,00 %
26.01.2019 11:34 5,7 C 5,6 C 5,0 C 99 % 1005,6 hPa 0,0 l/m 0 min 0 min 63 W/m 16,1 km/h (3 Bft) 100,00 %
26.01.2019 11:36 5,7 C 6,1 C 5,0 C 99 % 1005,5 hPa 0,0 l/m 0 min 0 min 74 W/m 19,3 km/h (3 Bft) 100,00 %
26.01.2019 11:38 5,8 C 6,1 C 5,0 C 99 % 1005,5 hPa 0,0 l/m 0 min 0 min 72 W/m 9,7 km/h (2 Bft) 100,00 %
26.01.2019 11:40 5,8 C 6,1 C 5,0 C 99 % 1005,4 hPa 0,0 l/m 0 min 0 min 66 W/m 16,1 km/h (3 Bft) 100,00 %
26.01.2019 11:42 5,8 C 6,1 C 5,0 C 99 % 1005,5 hPa 0,0 l/m 0 min 0 min 65 W/m 16,1 km/h (3 Bft) 100,00 %
26.01.2019 11:44 5,8 C 6,1 C 5,0 C 99 % 1005,4 hPa 0,0 l/m 0 min 0 min 73 W/m 12,9 km/h (3 Bft) 100,00 %
26.01.2019 11:46 5,8 C 6,1 C 5,0 C 99 % 1005,4 hPa 0,0 l/m 0 min 0 min 75 W/m 9,7 km/h (2 Bft) 100,00 %
26.01.2019 11:48 5,9 C 6,1 C 5,6 C 99 % 1005,5 hPa 0,0 l/m 0 min 0 min 63 W/m 16,1 km/h (3 Bft) 100,00 %
26.01.2019 11:50 5,9 C 6,1 C 5,6 C 99 % 1005,5 hPa 0,0 l/m 0 min 0 min 64 W/m 16,1 km/h (3 Bft) 100,00 %
26.01.2019 11:52 5,9 C 6,1 C 5,6 C 99 % 1005,4 hPa 0,0 l/m 0 min 0 min 72 W/m 16,1 km/h (3 Bft) 97,87 %
26.01.2019 11:54 5,9 C 6,1 C 5,6 C 99 % 1005,4 hPa 0,0 l/m 0 min 0 min 72 W/m 9,7 km/h (2 Bft) 100,00 %
26.01.2019 11:56 5,9 C 6,1 C 5,6 C 99 % 1005,4 hPa 0,0 l/m 0 min 0 min 72 W/m 9,7 km/h (2 Bft) 100,00 %
26.01.2019 11:58 6,0 C 6,1 C 5,6 C 99 % 1005,4 hPa 0,0 l/m 0 min 0 min 67 W/m 12,9 km/h (3 Bft) 100,00 %
26.01.2019 12:00 6,1 C 6,1 C 5,6 C 99 % 1005,5 hPa 0,0 l/m 0 min 0 min 66 W/m 12,9 km/h (3 Bft) 97,83 %
26.01.2019 12:02 6,1 C 6,1 C 5,6 C 99 % 1005,4 hPa 0,0 l/m 0 min 0 min 68 W/m 12,9 km/h (3 Bft) 97,87 %
26.01.2019 12:04 6,1 C 6,7 C 5,6 C 99 % 1005,2 hPa 0,0 l/m 0 min 0 min 82 W/m 12,9 km/h (3 Bft) 97,87 %
26.01.2019 12:08 6,1 C 6,7 C 5,6 C 99 % 1005,2 hPa 0,0 l/m 0 min 0 min 87 W/m 12,9 km/h (3 Bft) 95,79 %
26.01.2019 12:10 6,1 C 6,7 C 5,6 C 99 % 1005,3 hPa 0,0 l/m 0 min 0 min 86 W/m 9,7 km/h (2 Bft) 97,87 %
26.01.2019 12:12 6,2 C 6,7 C 5,6 C 99 % 1005,2 hPa 0,0 l/m 0 min 0 min 86 W/m 6,4 km/h (2 Bft) 97,83 %
26.01.2019 12:14 6,2 C 6,7 C 5,6 C 99 % 1005,2 hPa 0,0 l/m 0 min 0 min 83 W/m 16,1 km/h (3 Bft) 97,87 %
26.01.2019 12:16 6,2 C 6,7 C 5,6 C 99 % 1005,2 hPa 0,0 l/m 0 min 0 min 87 W/m 22,5 km/h (4 Bft) 95,74 %
26.01.2019 12:18 6,2 C 6,7 C 5,6 C 99 % 1005,2 hPa 0,0 l/m 0 min 0 min 94 W/m 16,1 km/h (3 Bft) 95,74 %
26.01.2019 12:20 6,2 C 6,7 C 5,6 C 99 % 1005,2 hPa 0,0 l/m 0 min 0 min 90 W/m 9,7 km/h (2 Bft) 93,62 %
26.01.2019 12:22 6,3 C 6,7 C 5,6 C 99 % 1005,1 hPa 0,0 l/m 0 min 0 min 83 W/m 9,7 km/h (2 Bft) 95,74 %
26.01.2019 12:24 6,3 C 6,7 C 5,6 C 99 % 1005,1 hPa 0,0 l/m 0 min 0 min 73 W/m 12,9 km/h (3 Bft) 93,48 %
26.01.2019 12:26 6,3 C 6,7 C 5,6 C 99 % 1005,1 hPa 0,0 l/m 0 min 0 min 70 W/m 9,7 km/h (2 Bft) 95,74 %
26.01.2019 12:28 6,3 C 6,7 C 5,6 C 99 % 1005,0 hPa 0,0 l/m 0 min 0 min 69 W/m 9,7 km/h (2 Bft) 95,74 %
26.01.2019 12:30 6,4 C 6,7 C 5,6 C 99 % 1005,0 hPa 0,0 l/m 0 min 0 min 100 W/m 9,7 km/h (2 Bft) 95,74 %
26.01.2019 12:32 6,4 C 6,7 C 5,6 C 99 % 1005,0 hPa 0,0 l/m 0 min 0 min 126 W/m 16,1 km/h (3 Bft) 95,74 %
26.01.2019 12:34 6,4 C 6,7 C 5,6 C 99 % 1004,9 hPa 0,0 l/m 0 min 0 min 113 W/m 9,7 km/h (2 Bft) 95,74 %
26.01.2019 12:36 6,4 C 7,2 C 6,1 C 99 % 1004,9 hPa 0,0 l/m 0 min 0 min 128 W/m 9,7 km/h (2 Bft) 95,65 %
26.01.2019 12:38 6,4 C 7,2 C 5,6 C 99 % 1004,9 hPa 0,0 l/m 0 min 0 min 97 W/m 19,3 km/h (3 Bft) 97,87 %
26.01.2019 12:40 6,4 C 6,7 C 5,6 C 99 % 1004,8 hPa 0,0 l/m 0 min 0 min 87 W/m 19,3 km/h (3 Bft) 97,96 %
26.01.2019 12:42 6,4 C 6,7 C 5,6 C 99 % 1004,8 hPa 0,0 l/m 0 min 0 min 76 W/m 6,4 km/h (2 Bft) 97,87 %
26.01.2019 12:44 6,5 C 6,7 C 5,6 C 99 % 1004,7 hPa 0,0 l/m 0 min 0 min 67 W/m 6,4 km/h (2 Bft) 97,87 %
26.01.2019 12:46 6,5 C 6,7 C 5,6 C 99 % 1004,8 hPa 0,0 l/m 0 min 0 min 60 W/m 12,9 km/h (3 Bft) 97,83 %
26.01.2019 12:48 6,5 C 6,7 C 5,6 C 99 % 1004,7 hPa 0,0 l/m 0 min 0 min 60 W/m 12,9 km/h (3 Bft) 97,87 %
26.01.2019 12:50 6,5 C 6,7 C 5,6 C 99 % 1004,6 hPa 0,0 l/m 0 min 0 min 72 W/m 12,9 km/h (3 Bft) 97,87 %
26.01.2019 12:52 6,5 C 6,7 C 5,6 C 99 % 1004,6 hPa 0,0 l/m 0 min 0 min 85 W/m 9,7 km/h (2 Bft) 97,87 %
26.01.2019 12:54 6,6 C 6,7 C 5,6 C 99 % 1004,5 hPa 0,0 l/m 0 min 0 min 89 W/m 16,1 km/h (3 Bft) 97,87 %
26.01.2019 12:56 6,6 C 6,7 C 5,6 C 99 % 1004,6 hPa 0,0 l/m 0 min 0 min 87 W/m 6,4 km/h (2 Bft) 97,83 %
26.01.2019 12:58 6,6 C 7,2 C 6,1 C 99 % 1004,5 hPa 0,0 l/m 0 min 0 min 108 W/m 19,3 km/h (3 Bft) 97,87 %
26.01.2019 13:00 6,6 C 7,2 C 6,1 C 99 % 1004,4 hPa 0,0 l/m 0 min 0 min 147 W/m 12,9 km/h (3 Bft) 97,87 %
26.01.2019 13:02 6,6 C 7,2 C 6,1 C 99 % 1004,3 hPa 0,0 l/m 0 min 0 min 144 W/m 16,1 km/h (3 Bft) 95,74 %
26.01.2019 13:04 6,7 C 7,2 C 6,1 C 99 % 1004,4 hPa 0,0 l/m 0 min 0 min 140 W/m 19,3 km/h (3 Bft) 97,87 %
26.01.2019 13:06 6,7 C 7,8 C 6,1 C 99 % 1004,3 hPa 0,0 l/m 0 min 0 min 172 W/m 9,7 km/h (2 Bft) 91,49 %
26.01.2019 13:08 6,7 C 8,3 C 6,7 C 99 % 1004,3 hPa 0,0 l/m 2 min 0 min 241 W/m 16,1 km/h (3 Bft) 95,65 %
26.01.2019 13:10 6,8 C 8,3 C 6,7 C 99 % 1004,2 hPa 0,0 l/m 2 min 0 min 215 W/m 9,7 km/h (2 Bft) 97,87 %
26.01.2019 13:12 6,8 C 8,3 C 6,7 C 99 % 1004,2 hPa 0,0 l/m 0 min 0 min 179 W/m 9,7 km/h (2 Bft) 95,74 %
26.01.2019 13:14 6,9 C 7,8 C 6,7 C 99 % 1004,2 hPa 0,0 l/m 0 min 0 min 144 W/m 19,3 km/h (3 Bft) 100,00 %
26.01.2019 13:16 6,9 C 7,8 C 6,7 C 99 % 1004,2 hPa 0,0 l/m 0 min 0 min 136 W/m 16,1 km/h (3 Bft) 97,87 %
26.01.2019 13:18 7,0 C 7,8 C 6,7 C 99 % 1004,2 hPa 0,0 l/m 0 min 0 min 121 W/m 16,1 km/h (3 Bft) 97,87 %
26.01.2019 13:20 7,0 C 7,8 C 6,1 C 99 % 1004,1 hPa 0,0 l/m 0 min 0 min 110 W/m 19,3 km/h (3 Bft) 95,65 %
26.01.2019 13:22 7,0 C 7,8 C 6,1 C 99 % 1004,1 hPa 0,0 l/m 0 min 0 min 130 W/m 12,9 km/h (3 Bft) 97,87 %
26.01.2019 13:24 7,1 C 7,8 C 6,7 C 99 % 1004,1 hPa 0,0 l/m 0 min 0 min 146 W/m 9,7 km/h (2 Bft) 100,00 %
26.01.2019 13:26 7,1 C 7,8 C 6,7 C 99 % 1004,1 hPa 0,0 l/m 0 min 0 min 127 W/m 16,1 km/h (3 Bft) 100,00 %
26.01.2019 13:28 7,1 C 7,8 C 6,7 C 99 % 1004,0 hPa 0,0 l/m 0 min 0 min 162 W/m 12,9 km/h (3 Bft) 97,87 %
26.01.2019 13:30 7,1 C 7,8 C 6,7 C 99 % 1004,0 hPa 0,0 l/m 0 min 0 min 166 W/m 6,4 km/h (2 Bft) 97,87 %
26.01.2019 13:32 7,1 C 8,3 C 6,7 C 99 % 1003,9 hPa 0,0 l/m 2 min 0 min 196 W/m 6,4 km/h (2 Bft) 97,83 %
26.01.2019 13:34 7,2 C 8,3 C 6,7 C 99 % 1003,8 hPa 0,0 l/m 2 min 0 min 192 W/m 19,3 km/h (3 Bft) 97,87 %
26.01.2019 13:36 7,2 C 7,8 C 6,7 C 99 % 1003,7 hPa 0,0 l/m 0 min 0 min 159 W/m 12,9 km/h (3 Bft) 97,87 %
26.01.2019 13:38 7,2 C 7,8 C 6,7 C 99 % 1003,7 hPa 0,0 l/m 0 min 0 min 137 W/m 19,3 km/h (3 Bft) 95,74 %
26.01.2019 13:40 7,3 C 7,8 C 6,7 C 99 % 1003,7 hPa 0,0 l/m 0 min 0 min 112 W/m 9,7 km/h (2 Bft) 95,74 %
26.01.2019 13:42 7,3 C 7,8 C 6,7 C 99 % 1003,8 hPa 0,0 l/m 0 min 0 min 94 W/m 12,9 km/h (3 Bft) 97,87 %
26.01.2019 13:44 7,3 C 7,2 C 6,1 C 98 % 1003,8 hPa 0,0 l/m 0 min 0 min 80 W/m 22,5 km/h (4 Bft) 95,65 %
26.01.2019 13:46 7,3 C 7,2 C 6,1 C 98 % 1003,7 hPa 0,0 l/m 0 min 0 min 94 W/m 19,3 km/h (3 Bft) 95,74 %
26.01.2019 13:48 7,3 C 7,8 C 6,7 C 98 % 1003,7 hPa 0,0 l/m 0 min 0 min 107 W/m 6,4 km/h (2 Bft) 97,87 %
26.01.2019 13:50 7,3 C 7,8 C 6,7 C 98 % 1003,7 hPa 0,0 l/m 0 min 0 min 114 W/m 12,9 km/h (3 Bft) 97,87 %
26.01.2019 13:52 7,3 C 7,2 C 6,7 C 98 % 1003,6 hPa 0,0 l/m 0 min 0 min 106 W/m 16,1 km/h (3 Bft) 97,87 %
26.01.2019 13:54 7,3 C 7,2 C 6,1 C 98 % 1003,6 hPa 0,0 l/m 0 min 0 min 83 W/m 12,9 km/h (3 Bft) 97,87 %
26.01.2019 13:56 7,3 C 7,2 C 6,1 C 98 % 1003,5 hPa 0,0 l/m 0 min 0 min 70 W/m 12,9 km/h (3 Bft) 97,14 %
26.01.2019 13:58 7,3 C 7,2 C 6,1 C 98 % 1003,5 hPa 0,0 l/m 0 min 0 min 61 W/m 22,5 km/h (4 Bft) 95,65 %
26.01.2019 14:00 7,3 C 7,2 C 6,1 C 97 % 1003,4 hPa 0,0 l/m 0 min 0 min 67 W/m 16,1 km/h (3 Bft) 97,87 %
26.01.2019 14:02 7,3 C 7,2 C 6,1 C 97 % 1003,5 hPa 0,0 l/m 0 min 0 min 65 W/m 9,7 km/h (2 Bft) 97,87 %
26.01.2019 14:04 7,3 C 7,2 C 6,1 C 97 % 1003,3 hPa 0,0 l/m 0 min 0 min 69 W/m 6,4 km/h (2 Bft) 97,87 %
26.01.2019 14:06 7,3 C 7,2 C 6,1 C 97 % 1003,4 hPa 0,0 l/m 0 min 0 min 65 W/m 9,7 km/h (2 Bft) 98,28 %
26.01.2019 14:08 7,3 C 7,2 C 6,1 C 97 % 1003,4 hPa 0,0 l/m 0 min 0 min 68 W/m 16,1 km/h (3 Bft) 97,22 %
26.01.2019 14:10 7,3 C 7,2 C 6,1 C 97 % 1003,3 hPa 0,0 l/m 0 min 0 min 50 W/m 9,7 km/h (2 Bft) 97,83 %
26.01.2019 14:12 7,3 C 7,2 C 6,1 C 97 % 1003,3 hPa 0,0 l/m 0 min 0 min 48 W/m 16,1 km/h (3 Bft) 97,87 %
26.01.2019 14:14 7,3 C 7,2 C 6,1 C 97 % 1003,3 hPa 0,0 l/m 0 min 0 min 46 W/m 12,9 km/h (3 Bft) 97,87 %
26.01.2019 14:16 7,3 C 6,7 C 6,1 C 97 % 1003,3 hPa 0,0 l/m 0 min 0 min 49 W/m 12,9 km/h (3 Bft) 97,87 %
26.01.2019 14:18 7,3 C 6,7 C 6,1 C 97 % 1003,1 hPa 0,0 l/m 0 min 0 min 51 W/m 3,2 km/h (1 Bft) 95,74 %
26.01.2019 14:20 7,3 C 6,7 C 6,1 C 97 % 1003,1 hPa 0,0 l/m 0 min 0 min 56 W/m 9,7 km/h (2 Bft) 95,74 %
26.01.2019 14:22 7,3 C 6,7 C 5,6 C 96 % 1003,0 hPa 0,0 l/m 0 min 0 min 60 W/m 16,1 km/h (3 Bft) 95,65 %
26.01.2019 14:24 7,3 C 6,7 C 6,1 C 96 % 1003,0 hPa 0,0 l/m 0 min 0 min 92 W/m 6,4 km/h (2 Bft) 93,62 %
26.01.2019 14:26 7,3 C 7,2 C 6,1 C 96 % 1003,0 hPa 0,0 l/m 0 min 0 min 98 W/m 9,7 km/h (2 Bft) 95,74 %
26.01.2019 14:28 7,2 C 7,2 C 6,1 C 96 % 1002,9 hPa 0,0 l/m 0 min 0 min 94 W/m 9,7 km/h (2 Bft) 95,74 %
26.01.2019 14:30 7,2 C 7,2 C 6,1 C 96 % 1002,9 hPa 0,0 l/m 0 min 0 min 80 W/m 19,3 km/h (3 Bft) 95,74 %
26.01.2019 14:32 7,2 C 7,2 C 6,1 C 96 % 1002,9 hPa 0,0 l/m 0 min 0 min 72 W/m 9,7 km/h (2 Bft) 97,87 %
26.01.2019 14:34 7,2 C 7,2 C 6,1 C 96 % 1002,9 hPa 0,0 l/m 0 min 0 min 43 W/m 12,9 km/h (3 Bft) 95,65 %
26.01.2019 14:36 7,2 C 7,2 C 6,1 C 96 % 1002,8 hPa 0,0 l/m 0 min 0 min 35 W/m 16,1 km/h (3 Bft) 98,31 %
26.01.2019 14:38 7,2 C 7,2 C 6,1 C 96 % 1002,8 hPa 0,0 l/m 0 min 0 min 33 W/m 19,3 km/h (3 Bft) 97,14 %
26.01.2019 14:40 7,2 C 7,2 C 6,1 C 96 % 1002,8 hPa 0,0 l/m 0 min 0 min 30 W/m 22,5 km/h (4 Bft) 97,87 %
26.01.2019 14:42 7,2 C 6,7 C 6,1 C 96 % 1002,8 hPa 0,0 l/m 0 min 0 min 29 W/m 19,3 km/h (3 Bft) 97,87 %
26.01.2019 14:44 7,2 C 6,7 C 6,1 C 95 % 1002,8 hPa 0,0 l/m 0 min 0 min 31 W/m 16,1 km/h (3 Bft) 95,74 %
26.01.2019 14:46 7,2 C 7,2 C 6,1 C 95 % 1002,8 hPa 0,0 l/m 0 min 0 min 38 W/m 12,9 km/h (3 Bft) 97,83 %
26.01.2019 14:48 7,2 C 6,7 C 6,1 C 95 % 1002,8 hPa 0,0 l/m 0 min 0 min 35 W/m 9,7 km/h (2 Bft) 95,74 %
26.01.2019 14:50 7,2 C 6,7 C 6,1 C 95 % 1002,7 hPa 0,0 l/m 0 min 0 min 34 W/m 16,1 km/h (3 Bft) 97,87 %
26.01.2019 14:52 7,2 C 7,2 C 6,1 C 95 % 1002,7 hPa 0,0 l/m 0 min 0 min 44 W/m 16,1 km/h (3 Bft) 95,74 %
26.01.2019 14:54 7,2 C 7,2 C 6,1 C 95 % 1002,7 hPa 0,0 l/m 0 min 0 min 44 W/m 22,5 km/h (4 Bft) 97,87 %
26.01.2019 14:56 7,2 C 7,2 C 6,1 C 95 % 1002,7 hPa 0,0 l/m 0 min 0 min 41 W/m 16,1 km/h (3 Bft) 97,87 %
26.01.2019 14:58 7,2 C 6,7 C 6,1 C 95 % 1002,7 hPa 0,0 l/m 0 min 0 min 37 W/m 12,9 km/h (3 Bft) 97,83 %
26.01.2019 15:00 7,2 C 6,7 C 6,1 C 95 % 1002,7 hPa 0,0 l/m 0 min 0 min 35 W/m 29,0 km/h (5 Bft) 95,74 %
26.01.2019 15:02 7,2 C 6,7 C 6,1 C 95 % 1002,7 hPa 0,0 l/m 0 min 0 min 54 W/m 6,4 km/h (2 Bft) 97,87 %
26.01.2019 15:04 7,2 C 6,7 C 6,1 C 95 % 1002,7 hPa 0,0 l/m 0 min 0 min 42 W/m 6,4 km/h (2 Bft) 97,87 %
26.01.2019 15:06 7,2 C 6,7 C 6,1 C 95 % 1002,6 hPa 0,0 l/m 0 min 0 min 47 W/m 9,7 km/h (2 Bft) 100,00 %
26.01.2019 15:08 7,2 C 6,7 C 6,1 C 95 % 1002,6 hPa 0,0 l/m 0 min 0 min 44 W/m 22,5 km/h (4 Bft) 100,00 %
26.01.2019 15:10 7,2 C 6,7 C 6,1 C 95 % 1002,5 hPa 0,0 l/m 0 min 0 min 44 W/m 6,4 km/h (2 Bft) 95,74 %
26.01.2019 15:12 7,2 C 6,7 C 6,1 C 95 % 1002,5 hPa 0,0 l/m 0 min 0 min 38 W/m 12,9 km/h (3 Bft) 97,87 %
26.01.2019 15:14 7,2 C 6,7 C 6,1 C 95 % 1002,5 hPa 0,0 l/m 0 min 0 min 49 W/m 6,4 km/h (2 Bft) 95,74 %
26.01.2019 15:16 7,2 C 6,7 C 6,1 C 95 % 1002,4 hPa 0,0 l/m 0 min 0 min 42 W/m 9,7 km/h (2 Bft) 91,49 %
26.01.2019 15:18 7,2 C 6,7 C 6,1 C 95 % 1002,4 hPa 0,0 l/m 0 min 0 min 35 W/m 25,7 km/h (4 Bft) 95,74 %
26.01.2019 15:20 7,2 C 6,7 C 6,1 C 94 % 1002,4 hPa 0,0 l/m 0 min 0 min 30 W/m 12,9 km/h (3 Bft) 97,83 %
26.01.2019 15:22 7,2 C 6,7 C 6,1 C 94 % 1002,3 hPa 0,0 l/m 0 min 0 min 28 W/m 22,5 km/h (4 Bft) 97,87 %
26.01.2019 15:24 7,2 C 6,1 C 5,6 C 94 % 1002,3 hPa 0,0 l/m 0 min 2 min 25 W/m 16,1 km/h (3 Bft) 97,87 %
26.01.2019 15:26 7,2 C 6,1 C 5,6 C 94 % 1002,4 hPa 0,0 l/m 0 min 0 min 23 W/m 19,3 km/h (3 Bft) 95,74 %
26.01.2019 15:28 7,2 C 6,1 C 5,6 C 94 % 1002,3 hPa 0,0 l/m 0 min 0 min 22 W/m 16,1 km/h (3 Bft) 97,87 %
26.01.2019 15:30 7,2 C 6,1 C 5,6 C 94 % 1002,3 hPa 0,0 l/m 0 min 0 min 16 W/m 16,1 km/h (3 Bft) 97,87 %
26.01.2019 15:32 7,1 C 6,1 C 5,6 C 94 % 1002,2 hPa 0,0 l/m 0 min 0 min 17 W/m 12,9 km/h (3 Bft) 95,65 %
26.01.2019 15:34 7,1 C 6,1 C 5,6 C 95 % 1002,2 hPa 0,0 l/m 0 min 0 min 23 W/m 12,9 km/h (3 Bft) 97,87 %
26.01.2019 15:36 7,1 C 6,1 C 5,6 C 95 % 1002,2 hPa 0,0 l/m 0 min 2 min 22 W/m 12,9 km/h (3 Bft) 98,31 %
26.01.2019 15:38 7,1 C 6,1 C 5,6 C 95 % 1002,1 hPa 0,0 l/m 0 min 2 min 20 W/m 22,5 km/h (4 Bft) 97,87 %
26.01.2019 15:40 7,1 C 6,1 C 5,6 C 95 % 1002,1 hPa 0,0 l/m 0 min 2 min 13 W/m 16,1 km/h (3 Bft) 97,14 %
26.01.2019 15:42 7,1 C 6,1 C 5,6 C 95 % 1002,1 hPa 0,0 l/m 0 min 2 min 16 W/m 22,5 km/h (4 Bft) 95,74 %
26.01.2019 15:44 7,0 C 6,1 C 5,6 C 95 % 1002,1 hPa 0,0 l/m 0 min 2 min 17 W/m 16,1 km/h (3 Bft) 97,83 %
26.01.2019 15:46 7,0 C 6,1 C 5,6 C 95 % 1002,0 hPa 0,0 l/m 0 min 2 min 23 W/m 19,3 km/h (3 Bft) 97,87 %
26.01.2019 15:48 6,9 C 6,1 C 5,6 C 95 % 1002,0 hPa 0,0 l/m 0 min 2 min 26 W/m 12,9 km/h (3 Bft) 93,62 %
26.01.2019 15:50 6,9 C 6,1 C 5,6 C 95 % 1001,9 hPa 0,0 l/m 0 min 2 min 18 W/m 12,9 km/h (3 Bft) 95,74 %
26.01.2019 15:52 6,9 C 6,1 C 5,0 C 95 % 1001,8 hPa 0,0 l/m 0 min 2 min 15 W/m 16,1 km/h (3 Bft) 97,87 %
26.01.2019 15:54 6,9 C 6,1 C 5,6 C 95 % 1001,9 hPa 0,0 l/m 0 min 2 min 15 W/m 22,5 km/h (4 Bft) 97,87 %
26.01.2019 15:56 6,9 C 6,1 C 5,6 C 95 % 1001,7 hPa 0,0 l/m 0 min 0 min 23 W/m 16,1 km/h (3 Bft) 97,83 %
26.01.2019 15:58 6,9 C 6,1 C 5,6 C 95 % 1001,8 hPa 0,0 l/m 0 min 0 min 26 W/m 16,1 km/h (3 Bft) 95,74 %
26.01.2019 16:00 6,9 C 6,1 C 5,6 C 95 % 1001,8 hPa 0,0 l/m 0 min 0 min 26 W/m 22,5 km/h (4 Bft) 95,74 %
26.01.2019 16:02 6,8 C 6,1 C 5,6 C 95 % 1001,7 hPa 0,0 l/m 0 min 0 min 25 W/m 22,5 km/h (4 Bft) 97,87 %
26.01.2019 16:04 6,8 C 6,1 C 5,6 C 95 % 1001,8 hPa 0,0 l/m 0 min 0 min 24 W/m 12,9 km/h (3 Bft) 100,00 %
26.01.2019 16:06 6,8 C 6,1 C 5,6 C 95 % 1001,7 hPa 0,0 l/m 0 min 0 min 22 W/m 19,3 km/h (3 Bft) 98,28 %
26.01.2019 16:08 6,8 C 6,1 C 5,6 C 95 % 1001,7 hPa 0,0 l/m 0 min 0 min 24 W/m 19,3 km/h (3 Bft) 94,29 %
26.01.2019 16:10 6,8 C 6,1 C 5,6 C 95 % 1001,7 hPa 0,0 l/m 0 min 0 min 25 W/m 19,3 km/h (3 Bft) 100,00 %
26.01.2019 16:12 6,9 C 6,1 C 5,6 C 95 % 1001,6 hPa 0,0 l/m 0 min 0 min 21 W/m 9,7 km/h (2 Bft) 100,00 %
26.01.2019 16:14 6,8 C 6,1 C 5,6 C 95 % 1001,6 hPa 0,0 l/m 0 min 0 min 14 W/m 22,5 km/h (4 Bft) 100,00 %
26.01.2019 16:16 6,8 C 6,1 C 5,6 C 95 % 1001,5 hPa 0,0 l/m 0 min 0 min 17 W/m 22,5 km/h (4 Bft) 100,00 %
26.01.2019 16:18 6,8 C 6,1 C 5,6 C 95 % 1001,5 hPa 0,0 l/m 0 min 0 min 17 W/m 16,1 km/h (3 Bft) 97,83 %
26.01.2019 16:20 6,8 C 6,1 C 5,6 C 95 % 1001,4 hPa 0,0 l/m 0 min 0 min 14 W/m 32,2 km/h (5 Bft) 100,00 %
26.01.2019 16:22 6,8 C 6,1 C 5,0 C 95 % 1001,4 hPa 0,0 l/m 0 min 0 min 15 W/m 16,1 km/h (3 Bft) 100,00 %
26.01.2019 16:24 6,8 C 6,1 C 5,0 C 95 % 1001,5 hPa 0,0 l/m 0 min 0 min 17 W/m 16,1 km/h (3 Bft) 100,00 %
26.01.2019 16:26 6,8 C 6,1 C 5,0 C 95 % 1001,4 hPa 0,0 l/m 0 min 0 min 19 W/m 12,9 km/h (3 Bft) 97,87 %
26.01.2019 16:28 6,8 C 6,1 C 5,0 C 95 % 1001,4 hPa 0,0 l/m 0 min 0 min 18 W/m 12,9 km/h (3 Bft) 100,00 %
26.01.2019 16:30 6,8 C 6,1 C 5,6 C 95 % 1001,4 hPa 0,0 l/m 0 min 0 min 23 W/m 29,0 km/h (5 Bft) 100,00 %
26.01.2019 16:32 6,8 C 6,1 C 5,6 C 95 % 1001,3 hPa 0,0 l/m 0 min 0 min 23 W/m 12,9 km/h (3 Bft) 97,87 %
26.01.2019 16:34 6,8 C 6,1 C 5,6 C 95 % 1001,3 hPa 0,0 l/m 0 min 0 min 26 W/m 16,1 km/h (3 Bft) 95,74 %
26.01.2019 16:36 6,8 C 6,1 C 5,6 C 95 % 1001,3 hPa 0,0 l/m 0 min 0 min 25 W/m 22,5 km/h (4 Bft) 98,31 %
26.01.2019 16:38 6,8 C 6,1 C 5,6 C 95 % 1001,3 hPa 0,0 l/m 0 min 0 min 19 W/m 9,7 km/h (2 Bft) 100,00 %
26.01.2019 16:40 6,7 C 6,1 C 5,6 C 95 % 1001,2 hPa 0,0 l/m 0 min 0 min 17 W/m 12,9 km/h (3 Bft) 100,00 %
26.01.2019 16:42 6,7 C 6,1 C 5,6 C 95 % 1001,0 hPa 0,0 l/m 0 min 0 min 15 W/m 22,5 km/h (4 Bft) 97,83 %
26.01.2019 16:44 6,7 C 6,1 C 5,6 C 95 % 1001,0 hPa 0,0 l/m 0 min 0 min 11 W/m 19,3 km/h (3 Bft) 97,87 %
26.01.2019 16:46 6,7 C 6,1 C 5,6 C 95 % 1001,0 hPa 0,0 l/m 0 min 0 min 8 W/m 22,5 km/h (4 Bft) 100,00 %
26.01.2019 16:48 6,7 C 6,1 C 5,6 C 95 % 1001,1 hPa 0,0 l/m 0 min 0 min 7 W/m 19,3 km/h (3 Bft) 97,87 %
26.01.2019 16:50 6,7 C 6,1 C 5,6 C 95 % 1001,0 hPa 0,0 l/m 0 min 0 min 8 W/m 22,5 km/h (4 Bft) 97,87 %
26.01.2019 16:52 6,7 C 6,1 C 5,6 C 95 % 1000,9 hPa 0,0 l/m 0 min 0 min 7 W/m 25,7 km/h (4 Bft) 95,74 %
26.01.2019 16:54 6,7 C 6,1 C 5,6 C 95 % 1000,9 hPa 0,0 l/m 0 min 0 min 7 W/m 19,3 km/h (3 Bft) 93,48 %
26.01.2019 16:56 6,7 C 6,1 C 5,6 C 95 % 1000,9 hPa 0,0 l/m 0 min 0 min 6 W/m 25,7 km/h (4 Bft) 95,74 %
26.01.2019 16:58 6,7 C 6,1 C 5,6 C 95 % 1000,8 hPa 0,0 l/m 0 min 0 min 5 W/m 16,1 km/h (3 Bft) 95,74 %
26.01.2019 17:00 6,7 C 6,1 C 5,6 C 95 % 1000,8 hPa 0,0 l/m 0 min 0 min 5 W/m 16,1 km/h (3 Bft) 95,74 %
26.01.2019 17:02 6,7 C 6,1 C 5,6 C 95 % 1000,8 hPa 0,0 l/m 0 min 0 min 1 W/m 32,2 km/h (5 Bft) 91,49 %
26.01.2019 17:04 6,7 C 6,1 C 5,6 C 95 % 1000,7 hPa 0,0 l/m 0 min 0 min 0 W/m 16,1 km/h (3 Bft) 95,74 %
26.01.2019 17:06 6,7 C 6,1 C 5,6 C 95 % 1000,7 hPa 0,0 l/m 0 min 0 min 0 W/m 29,0 km/h (5 Bft) 91,38 %
26.01.2019 17:08 6,7 C 6,1 C 5,6 C 95 % 1000,7 hPa 0,0 l/m 0 min 0 min 0 W/m 22,5 km/h (4 Bft) 97,14 %
26.01.2019 17:10 6,7 C 6,1 C 5,6 C 95 % 1000,7 hPa 0,0 l/m 0 min 0 min 0 W/m 22,5 km/h (4 Bft) 93,62 %
26.01.2019 17:12 6,7 C 6,1 C 5,6 C 95 % 1000,6 hPa 0,0 l/m 0 min 0 min 0 W/m 19,3 km/h (3 Bft) 95,74 %
26.01.2019 17:14 6,7 C 6,1 C 5,6 C 95 % 1000,6 hPa 0,0 l/m 0 min 0 min 0 W/m 25,7 km/h (4 Bft) 93,62 %
26.01.2019 17:16 6,7 C 5,6 C 5,0 C 95 % 1000,5 hPa 0,0 l/m 0 min 0 min 0 W/m 22,5 km/h (4 Bft) 95,65 %
26.01.2019 17:18 6,7 C 5,6 C 5,0 C 95 % 1000,5 hPa 0,0 l/m 0 min 0 min 0 W/m 19,3 km/h (3 Bft) 95,74 %
26.01.2019 17:20 6,7 C 5,6 C 5,0 C 95 % 1000,5 hPa 0,0 l/m 0 min 0 min 0 W/m 25,7 km/h (4 Bft) 95,74 %
26.01.2019 17:22 6,7 C 5,6 C 5,0 C 96 % 1000,5 hPa 0,0 l/m 0 min 0 min 0 W/m 9,7 km/h (2 Bft) 93,62 %
26.01.2019 17:24 6,7 C 5,6 C 5,0 C 96 % 1000,4 hPa 0,0 l/m 0 min 0 min 0 W/m 22,5 km/h (4 Bft) 95,74 %
26.01.2019 17:26 6,6 C 5,6 C 5,0 C 96 % 1000,5 hPa 0,0 l/m 0 min 0 min 0 W/m 19,3 km/h (3 Bft) 95,74 %
26.01.2019 17:28 6,6 C 5,6 C 5,0 C 96 % 1000,5 hPa 0,0 l/m 0 min 0 min 0 W/m 22,5 km/h (4 Bft) 95,65 %
26.01.2019 17:30 6,6 C 5,6 C 5,0 C 96 % 1000,4 hPa 0,0 l/m 0 min 2 min 0 W/m 16,1 km/h (3 Bft) 95,74 %
26.01.2019 17:32 6,6 C 5,6 C 5,0 C 96 % 1000,4 hPa 0,0 l/m 0 min 2 min 0 W/m 12,9 km/h (3 Bft) 95,74 %
26.01.2019 17:34 6,6 C 5,6 C 5,0 C 95 % 1000,4 hPa 0,0 l/m 0 min 0 min 0 W/m 12,9 km/h (3 Bft) 93,62 %
26.01.2019 17:36 6,6 C 5,6 C 5,0 C 95 % 1000,4 hPa 0,0 l/m 0 min 0 min 0 W/m 12,9 km/h (3 Bft) 96,61 %
26.01.2019 17:38 6,6 C 5,6 C 5,0 C 95 % 1000,3 hPa 0,0 l/m 0 min 0 min 0 W/m 19,3 km/h (3 Bft) 100,00 %
26.01.2019 17:40 6,6 C 5,6 C 5,0 C 95 % 1000,4 hPa 0,0 l/m 0 min 0 min 0 W/m 16,1 km/h (3 Bft) 97,83 %
26.01.2019 17:42 6,6 C 5,6 C 5,0 C 96 % 1000,3 hPa 0,0 l/m 0 min 2 min 0 W/m 9,7 km/h (2 Bft) 100,00 %
26.01.2019 17:44 6,5 C 5,6 C 5,0 C 96 % 1000,3 hPa 0,0 l/m 0 min 2 min 0 W/m 16,1 km/h (3 Bft) 100,00 %
26.01.2019 17:46 6,5 C 5,6 C 5,0 C 96 % 1000,3 hPa 0,0 l/m 0 min 2 min 0 W/m 16,1 km/h (3 Bft) 100,00 %
26.01.2019 17:48 6,5 C 5,6 C 5,0 C 96 % 1000,1 hPa 0,2 l/m 0 min 2 min 0 W/m 25,7 km/h (4 Bft) 97,87 %
26.01.2019 17:50 6,4 C 5,6 C 5,0 C 96 % 1000,1 hPa 0,0 l/m 0 min 2 min 0 W/m 16,1 km/h (3 Bft) 100,00 %
26.01.2019 17:52 6,4 C 5,6 C 5,0 C 96 % 1000,1 hPa 0,0 l/m 0 min 0 min 0 W/m 22,5 km/h (4 Bft) 100,00 %
26.01.2019 17:54 6,4 C 5,6 C 5,0 C 96 % 1000,0 hPa 0,0 l/m 0 min 2 min 0 W/m 19,3 km/h (3 Bft) 97,87 %
26.01.2019 17:56 6,4 C 5,6 C 5,0 C 96 % 1000,1 hPa 0,0 l/m 0 min 2 min 0 W/m 16,1 km/h (3 Bft) 100,00 %
26.01.2019 17:58 6,4 C 5,6 C 5,0 C 96 % 1000,0 hPa 0,0 l/m 0 min 2 min 0 W/m 16,1 km/h (3 Bft) 100,00 %
26.01.2019 18:00 6,4 C 5,0 C 5,0 C 96 % 999,9 hPa 0,0 l/m 0 min 0 min 0 W/m 19,3 km/h (3 Bft) 100,00 %
26.01.2019 18:02 6,4 C 5,0 C 5,0 C 96 % 999,8 hPa 0,0 l/m 0 min 0 min 0 W/m 19,3 km/h (3 Bft) 100,00 %
26.01.2019 18:04 6,3 C 5,0 C 5,0 C 96 % 999,8 hPa 0,0 l/m 0 min 2 min 0 W/m 19,3 km/h (3 Bft) 100,00 %
26.01.2019 18:08 6,3 C 5,0 C 4,4 C 96 % 999,7 hPa 0,0 l/m 0 min 4 min 0 W/m 19,3 km/h (3 Bft) 100,00 %
26.01.2019 18:10 6,3 C 5,0 C 4,4 C 96 % 999,7 hPa 0,0 l/m 0 min 2 min 0 W/m 12,9 km/h (3 Bft) 100,00 %
26.01.2019 18:12 6,3 C 5,0 C 4,4 C 96 % 999,7 hPa 0,0 l/m 0 min 0 min 0 W/m 9,7 km/h (2 Bft) 100,00 %
26.01.2019 18:14 6,3 C 5,0 C 4,4 C 96 % 999,6 hPa 0,0 l/m 0 min 0 min 0 W/m 12,9 km/h (3 Bft) 100,00 %
26.01.2019 18:16 6,3 C 5,0 C 4,4 C 96 % 999,5 hPa 0,0 l/m 0 min 0 min 0 W/m 12,9 km/h (3 Bft) 100,00 %
26.01.2019 18:18 6,2 C 5,0 C 4,4 C 96 % 999,5 hPa 0,0 l/m 0 min 0 min 0 W/m 16,1 km/h (3 Bft) 100,00 %
26.01.2019 18:20 6,2 C 5,0 C 4,4 C 96 % 999,5 hPa 0,0 l/m 0 min 0 min 0 W/m 12,9 km/h (3 Bft) 97,87 %
26.01.2019 18:22 6,2 C 5,0 C 4,4 C 96 % 999,5 hPa 0,0 l/m 0 min 0 min 0 W/m 9,7 km/h (2 Bft) 97,87 %
26.01.2019 18:24 6,2 C 5,0 C 4,4 C 96 % 999,5 hPa 0,0 l/m 0 min 0 min 0 W/m 16,1 km/h (3 Bft) 100,00 %
26.01.2019 18:26 6,2 C 5,0 C 4,4 C 96 % 999,4 hPa 0,0 l/m 0 min 0 min 0 W/m 12,9 km/h (3 Bft) 100,00 %
26.01.2019 18:28 6,2 C 5,0 C 4,4 C 96 % 999,4 hPa 0,0 l/m 0 min 0 min 0 W/m 16,1 km/h (3 Bft) 97,87 %
26.01.2019 18:30 6,2 C 5,0 C 4,4 C 96 % 999,4 hPa 0,0 l/m 0 min 0 min 0 W/m 22,5 km/h (4 Bft) 95,74 %
26.01.2019 18:32 6,2 C 5,0 C 4,4 C 96 % 999,3 hPa 0,0 l/m 0 min 0 min 0 W/m 19,3 km/h (3 Bft) 97,87 %
26.01.2019 18:34 6,1 C 5,0 C 4,4 C 96 % 999,3 hPa 0,0 l/m 0 min 0 min 0 W/m 16,1 km/h (3 Bft) 97,87 %
26.01.2019 18:36 6,1 C 5,0 C 4,4 C 96 % 999,3 hPa 0,0 l/m 0 min 0 min 0 W/m 19,3 km/h (3 Bft) 95,74 %
26.01.2019 18:38 6,1 C 5,0 C 4,4 C 96 % 999,4 hPa 0,0 l/m 0 min 0 min 0 W/m 16,1 km/h (3 Bft) 96,23 %
26.01.2019 18:40 6,1 C 5,0 C 4,4 C 96 % 999,3 hPa 0,0 l/m 0 min 0 min 0 W/m 16,1 km/h (3 Bft) 98,00 %
26.01.2019 18:42 6,1 C 5,0 C 4,4 C 96 % 999,3 hPa 0,0 l/m 0 min 0 min 0 W/m 12,9 km/h (3 Bft) 97,87 %
26.01.2019 18:44 6,1 C 5,0 C 4,4 C 96 % 999,3 hPa 0,0 l/m 0 min 0 min 0 W/m 16,1 km/h (3 Bft) 95,74 %
26.01.2019 18:46 6,1 C 5,0 C 4,4 C 96 % 999,2 hPa 0,0 l/m 0 min 0 min 0 W/m 22,5 km/h (4 Bft) 97,87 %
26.01.2019 18:48 6,1 C 5,0 C 4,4 C 96 % 999,2 hPa 0,0 l/m 0 min 2 min 0 W/m 19,3 km/h (3 Bft) 97,83 %
26.01.2019 18:50 6,1 C 5,0 C 4,4 C 97 % 999,2 hPa 0,0 l/m 0 min 2 min 0 W/m 9,7 km/h (2 Bft) 97,87 %
26.01.2019 18:52 6,1 C 5,0 C 4,4 C 96 % 999,1 hPa 0,2 l/m 0 min 2 min 0 W/m 16,1 km/h (3 Bft) 97,87 %
26.01.2019 18:54 6,1 C 5,0 C 4,4 C 97 % 999,1 hPa 0,0 l/m 0 min 2 min 0 W/m 9,7 km/h (2 Bft) 97,87 %
26.01.2019 18:56 6,1 C 5,0 C 4,4 C 97 % 999,0 hPa 0,0 l/m 0 min 0 min 0 W/m 9,7 km/h (2 Bft) 100,00 %
26.01.2019 18:58 6,1 C 5,0 C 4,4 C 97 % 998,9 hPa 0,0 l/m 0 min 2 min 0 W/m 9,7 km/h (2 Bft) 97,87 %
26.01.2019 19:00 6,1 C 5,0 C 4,4 C 97 % 998,9 hPa 0,0 l/m 0 min 2 min 0 W/m 16,1 km/h (3 Bft) 97,83 %
26.01.2019 19:02 6,1 C 5,0 C 4,4 C 97 % 998,9 hPa 0,0 l/m 0 min 2 min 0 W/m 12,9 km/h (3 Bft) 97,87 %
26.01.2019 19:04 6,1 C 5,0 C 4,4 C 97 % 998,8 hPa 0,0 l/m 0 min 2 min 0 W/m 12,9 km/h (3 Bft) 97,87 %
26.01.2019 19:06 6,1 C 5,0 C 4,4 C 97 % 998,8 hPa 0,0 l/m 0 min 2 min 0 W/m 12,9 km/h (3 Bft) 97,87 %
26.01.2019 19:08 6,1 C 5,0 C 4,4 C 97 % 998,7 hPa 0,0 l/m 0 min 2 min 0 W/m 9,7 km/h (2 Bft) 97,87 %
26.01.2019 19:10 6,1 C 5,0 C 4,4 C 97 % 998,7 hPa 0,0 l/m 0 min 0 min 0 W/m 12,9 km/h (3 Bft) 97,96 %
26.01.2019 19:12 6,1 C 5,0 C 4,4 C 97 % 998,7 hPa 0,0 l/m 0 min 0 min 0 W/m 12,9 km/h (3 Bft) 97,83 %
26.01.2019 19:14 6,1 C 5,0 C 4,4 C 97 % 998,6 hPa 0,0 l/m 0 min 0 min 0 W/m 16,1 km/h (3 Bft) 97,87 %
26.01.2019 19:16 6,1 C 5,0 C 4,4 C 97 % 998,7 hPa 0,0 l/m 0 min 0 min 0 W/m 12,9 km/h (3 Bft) 95,74 %
26.01.2019 19:18 6,1 C 5,0 C 4,4 C 97 % 998,6 hPa 0,0 l/m 0 min 0 min 0 W/m 22,5 km/h (4 Bft) 97,87 %
26.01.2019 19:20 6,0 C 5,0 C 4,4 C 97 % 998,6 hPa 0,0 l/m 0 min 0 min 0 W/m 25,7 km/h (4 Bft) 97,87 %
26.01.2019 19:22 6,0 C 5,0 C 4,4 C 97 % 998,6 hPa 0,0 l/m 0 min 0 min 0 W/m 16,1 km/h (3 Bft) 100,00 %
26.01.2019 19:24 6,0 C 5,0 C 4,4 C 97 % 998,5 hPa 0,0 l/m 0 min 0 min 0 W/m 12,9 km/h (3 Bft) 95,74 %
26.01.2019 19:26 6,0 C 5,0 C 4,4 C 97 % 998,5 hPa 0,0 l/m 0 min 0 min 0 W/m 19,3 km/h (3 Bft) 97,87 %
26.01.2019 19:28 6,0 C 5,0 C 4,4 C 97 % 998,4 hPa 0,0 l/m 0 min 0 min 0 W/m 19,3 km/h (3 Bft) 95,74 %
26.01.2019 19:30 6,0 C 5,0 C 4,4 C 97 % 998,2 hPa 0,0 l/m 0 min 0 min 0 W/m 32,2 km/h (5 Bft) 93,62 %
26.01.2019 19:32 6,0 C 5,0 C 4,4 C 97 % 998,3 hPa 0,0 l/m 0 min 0 min 0 W/m 16,1 km/h (3 Bft) 97,87 %
26.01.2019 19:34 6,0 C 5,0 C 4,4 C 97 % 998,2 hPa 0,0 l/m 0 min 0 min 0 W/m 22,5 km/h (4 Bft) 97,83 %
26.01.2019 19:36 6,0 C 5,0 C 4,4 C 97 % 998,2 hPa 0,0 l/m 0 min 0 min 0 W/m 16,1 km/h (3 Bft) 95,74 %
26.01.2019 19:38 6,0 C 5,0 C 4,4 C 97 % 998,1 hPa 0,0 l/m 0 min 0 min 0 W/m 25,7 km/h (4 Bft) 94,29 %
26.01.2019 19:40 6,0 C 5,0 C 4,4 C 97 % 998,1 hPa 0,0 l/m 0 min 0 min 0 W/m 12,9 km/h (3 Bft) 94,44 %
26.01.2019 19:42 6,0 C 5,0 C 4,4 C 97 % 998,1 hPa 0,0 l/m 0 min 0 min 0 W/m 12,9 km/h (3 Bft) 97,87 %
26.01.2019 19:44 6,0 C 5,0 C 4,4 C 97 % 998,0 hPa 0,0 l/m 0 min 0 min 0 W/m 16,1 km/h (3 Bft) 97,87 %
26.01.2019 19:46 6,0 C 5,0 C 4,4 C 97 % 998,0 hPa 0,0 l/m 0 min 0 min 0 W/m 12,9 km/h (3 Bft) 95,74 %
26.01.2019 19:48 5,9 C 5,0 C 4,4 C 97 % 997,9 hPa 0,0 l/m 0 min 0 min 0 W/m 16,1 km/h (3 Bft) 95,65 %
26.01.2019 19:50 5,9 C 5,0 C 4,4 C 97 % 997,9 hPa 0,0 l/m 0 min 0 min 0 W/m 22,5 km/h (4 Bft) 95,74 %
26.01.2019 19:52 5,9 C 5,0 C 4,4 C 97 % 997,9 hPa 0,0 l/m 0 min 0 min 0 W/m 22,5 km/h (4 Bft) 93,62 %
26.01.2019 19:54 5,9 C 5,0 C 4,4 C 97 % 997,9 hPa 0,0 l/m 0 min 0 min 0 W/m 16,1 km/h (3 Bft) 95,74 %
26.01.2019 19:56 5,9 C 5,0 C 4,4 C 97 % 997,9 hPa 0,0 l/m 0 min 0 min 0 W/m 19,3 km/h (3 Bft) 93,62 %
26.01.2019 19:58 5,9 C 5,0 C 4,4 C 97 % 997,8 hPa 0,0 l/m 0 min 0 min 0 W/m 19,3 km/h (3 Bft) 95,74 %
26.01.2019 20:00 5,9 C 5,0 C 4,4 C 97 % 997,8 hPa 0,0 l/m 0 min 0 min 0 W/m 16,1 km/h (3 Bft) 93,48 %
26.01.2019 20:02 5,9 C 5,0 C 4,4 C 97 % 997,8 hPa 0,0 l/m 0 min 0 min 0 W/m 19,3 km/h (3 Bft) 95,74 %
26.01.2019 20:04 5,9 C 5,0 C 4,4 C 97 % 997,7 hPa 0,0 l/m 0 min 0 min 0 W/m 19,3 km/h (3 Bft) 95,74 %
26.01.2019 20:06 5,9 C 5,0 C 4,4 C 97 % 997,7 hPa 0,0 l/m 0 min 0 min 0 W/m 16,1 km/h (3 Bft) 97,87 %
26.01.2019 20:08 5,9 C 5,0 C 4,4 C 97 % 997,7 hPa 0,0 l/m 0 min 0 min 0 W/m 25,7 km/h (4 Bft) 98,04 %
26.01.2019 20:10 5,9 C 5,0 C 4,4 C 97 % 997,7 hPa 0,0 l/m 0 min 0 min 0 W/m 25,7 km/h (4 Bft) 97,87 %
26.01.2019 20:12 5,9 C 5,6 C 4,4 C 97 % 997,6 hPa 0,0 l/m 0 min 0 min 0 W/m 25,7 km/h (4 Bft) 97,87 %
26.01.2019 20:14 5,9 C 5,6 C 4,4 C 97 % 997,6 hPa 0,0 l/m 0 min 0 min 0 W/m 25,7 km/h (4 Bft) 97,87 %
26.01.2019 20:16 6,0 C 5,6 C 4,4 C 97 % 997,6 hPa 0,0 l/m 0 min 0 min 0 W/m 16,1 km/h (3 Bft) 95,74 %
26.01.2019 20:18 6,0 C 5,6 C 5,0 C 97 % 997,5 hPa 0,0 l/m 0 min 0 min 0 W/m 22,5 km/h (4 Bft) 97,14 %
26.01.2019 20:20 6,0 C 5,6 C 5,0 C 97 % 997,4 hPa 0,0 l/m 0 min 0 min 0 W/m 12,9 km/h (3 Bft) 95,74 %
26.01.2019 20:22 6,0 C 5,6 C 5,0 C 97 % 997,4 hPa 0,0 l/m 0 min 0 min 0 W/m 25,7 km/h (4 Bft) 97,87 %
26.01.2019 20:24 6,0 C 5,6 C 5,0 C 97 % 997,3 hPa 0,0 l/m 0 min 0 min 0 W/m 19,3 km/h (3 Bft) 97,83 %
26.01.2019 20:26 6,0 C 5,6 C 5,0 C 97 % 997,4 hPa 0,0 l/m 0 min 0 min 0 W/m 19,3 km/h (3 Bft) 97,87 %
26.01.2019 20:28 6,0 C 5,6 C 5,0 C 97 % 997,4 hPa 0,0 l/m 0 min 0 min 0 W/m 25,7 km/h (4 Bft) 95,74 %
26.01.2019 20:30 6,0 C 5,6 C 5,0 C 97 % 997,3 hPa 0,0 l/m 0 min 0 min 0 W/m 22,5 km/h (4 Bft) 97,87 %
26.01.2019 20:32 6,1 C 5,6 C 5,0 C 97 % 997,3 hPa 0,0 l/m 0 min 0 min 0 W/m 16,1 km/h (3 Bft) 97,87 %
26.01.2019 20:34 6,1 C 5,6 C 5,0 C 97 % 997,3 hPa 0,0 l/m 0 min 0 min 0 W/m 22,5 km/h (4 Bft) 97,83 %
26.01.2019 20:36 6,1 C 5,6 C 5,0 C 97 % 997,3 hPa 0,0 l/m 0 min 0 min 0 W/m 32,2 km/h (5 Bft) 98,31 %
26.01.2019 20:38 6,1 C 5,6 C 5,0 C 97 % 997,3 hPa 0,0 l/m 0 min 0 min 0 W/m 25,7 km/h (4 Bft) 97,14 %
26.01.2019 20:40 6,1 C 5,6 C 5,0 C 97 % 997,1 hPa 0,0 l/m 0 min 0 min 0 W/m 19,3 km/h (3 Bft) 100,00 %
26.01.2019 20:42 6,1 C 5,6 C 5,0 C 97 % 997,1 hPa 0,0 l/m 0 min 0 min 0 W/m 25,7 km/h (4 Bft) 100,00 %
26.01.2019 20:44 6,1 C 5,6 C 5,0 C 97 % 997,1 hPa 0,0 l/m 0 min 0 min 0 W/m 25,7 km/h (4 Bft) 100,00 %
26.01.2019 20:46 6,2 C 5,6 C 5,0 C 97 % 997,1 hPa 0,0 l/m 0 min 0 min 0 W/m 29,0 km/h (5 Bft) 100,00 %
26.01.2019 20:48 6,2 C 5,6 C 5,0 C 97 % 997,0 hPa 0,0 l/m 0 min 0 min 0 W/m 25,7 km/h (4 Bft) 100,00 %
26.01.2019 20:50 6,2 C 5,6 C 5,0 C 97 % 997,0 hPa 0,0 l/m 0 min 0 min 0 W/m 22,5 km/h (4 Bft) 100,00 %
26.01.2019 20:52 6,2 C 5,6 C 5,0 C 96 % 997,0 hPa 0,0 l/m 0 min 0 min 0 W/m 16,1 km/h (3 Bft) 100,00 %
26.01.2019 20:54 6,2 C 5,6 C 5,0 C 96 % 996,9 hPa 0,0 l/m 0 min 0 min 0 W/m 19,3 km/h (3 Bft) 100,00 %
26.01.2019 20:56 6,2 C 5,6 C 5,0 C 96 % 996,9 hPa 0,0 l/m 0 min 0 min 0 W/m 29,0 km/h (5 Bft) 100,00 %
26.01.2019 20:58 6,2 C 5,6 C 5,0 C 96 % 996,8 hPa 0,0 l/m 0 min 0 min 0 W/m 32,2 km/h (5 Bft) 100,00 %
26.01.2019 21:00 6,2 C 5,6 C 5,0 C 96 % 996,7 hPa 0,0 l/m 0 min 0 min 0 W/m 25,7 km/h (4 Bft) 100,00 %
26.01.2019 21:02 6,2 C 5,6 C 5,0 C 96 % 996,7 hPa 0,0 l/m 0 min 0 min 0 W/m 22,5 km/h (4 Bft) 100,00 %
26.01.2019 21:04 6,3 C 5,6 C 5,0 C 96 % 996,7 hPa 0,0 l/m 0 min 0 min 0 W/m 25,7 km/h (4 Bft) 100,00 %
26.01.2019 21:06 6,3 C 5,6 C 5,0 C 96 % 996,6 hPa 0,0 l/m 0 min 0 min 0 W/m 25,7 km/h (4 Bft) 100,00 %
26.01.2019 21:08 6,3 C 5,6 C 5,0 C 96 % 996,6 hPa 0,0 l/m 0 min 0 min 0 W/m 19,3 km/h (3 Bft) 100,00 %
26.01.2019 21:10 6,3 C 5,6 C 5,0 C 96 % 996,6 hPa 0,0 l/m 0 min 0 min 0 W/m 29,0 km/h (5 Bft) 97,87 %
26.01.2019 21:12 6,3 C 5,6 C 5,0 C 95 % 996,5 hPa 0,0 l/m 0 min 0 min 0 W/m 19,3 km/h (3 Bft) 100,00 %
26.01.2019 21:14 6,3 C 5,6 C 5,0 C 95 % 996,3 hPa 0,0 l/m 0 min 0 min 0 W/m 22,5 km/h (4 Bft) 100,00 %
26.01.2019 21:16 6,4 C 5,6 C 5,0 C 95 % 996,2 hPa 0,0 l/m 0 min 0 min 0 W/m 22,5 km/h (4 Bft) 100,00 %
26.01.2019 21:18 6,4 C 5,6 C 5,0 C 95 % 996,2 hPa 0,0 l/m 0 min 0 min 0 W/m 35,4 km/h (5 Bft) 100,00 %
26.01.2019 21:20 6,4 C 5,6 C 5,0 C 95 % 996,1 hPa 0,0 l/m 0 min 0 min 0 W/m 22,5 km/h (4 Bft) 100,00 %
26.01.2019 21:22 6,4 C 5,6 C 5,0 C 95 % 996,1 hPa 0,0 l/m 0 min 0 min 0 W/m 16,1 km/h (3 Bft) 100,00 %
26.01.2019 21:24 6,4 C 5,6 C 5,0 C 95 % 996,1 hPa 0,0 l/m 0 min 0 min 0 W/m 19,3 km/h (3 Bft) 100,00 %
26.01.2019 21:26 6,4 C 5,6 C 5,0 C 95 % 996,1 hPa 0,0 l/m 0 min 0 min 0 W/m 25,7 km/h (4 Bft) 97,87 %
26.01.2019 21:28 6,4 C 5,6 C 5,0 C 95 % 996,1 hPa 0,0 l/m 0 min 0 min 0 W/m 22,5 km/h (4 Bft) 100,00 %
26.01.2019 21:30 6,4 C 5,6 C 5,0 C 95 % 996,0 hPa 0,0 l/m 0 min 0 min 0 W/m 22,5 km/h (4 Bft) 97,83 %
26.01.2019 21:32 6,4 C 5,6 C 5,0 C 94 % 995,9 hPa 0,0 l/m 0 min 0 min 0 W/m 22,5 km/h (4 Bft) 100,00 %
26.01.2019 21:34 6,4 C 5,6 C 5,0 C 94 % 995,9 hPa 0,0 l/m 0 min 0 min 0 W/m 22,5 km/h (4 Bft) 100,00 %
26.01.2019 21:36 6,4 C 5,6 C 5,0 C 94 % 995,7 hPa 0,0 l/m 0 min 0 min 0 W/m 32,2 km/h (5 Bft) 100,00 %
26.01.2019 21:38 6,4 C 5,6 C 5,0 C 94 % 995,7 hPa 0,0 l/m 0 min 0 min 0 W/m 19,3 km/h (3 Bft) 100,00 %
26.01.2019 21:40 6,4 C 5,6 C 5,0 C 94 % 995,6 hPa 0,0 l/m 0 min 0 min 0 W/m 22,5 km/h (4 Bft) 100,00 %
26.01.2019 21:42 6,4 C 5,6 C 5,0 C 94 % 995,7 hPa 0,0 l/m 0 min 0 min 0 W/m 29,0 km/h (5 Bft) 97,87 %
26.01.2019 21:44 6,4 C 5,6 C 5,0 C 94 % 995,7 hPa 0,0 l/m 0 min 0 min 0 W/m 29,0 km/h (5 Bft) 95,74 %
26.01.2019 21:46 6,4 C 5,6 C 5,0 C 94 % 995,7 hPa 0,0 l/m 0 min 0 min 0 W/m 29,0 km/h (5 Bft) 95,65 %
26.01.2019 21:48 6,4 C 5,6 C 5,0 C 94 % 995,7 hPa 0,0 l/m 0 min 0 min 0 W/m 22,5 km/h (4 Bft) 97,87 %
26.01.2019 21:50 6,4 C 5,6 C 5,0 C 93 % 995,7 hPa 0,0 l/m 0 min 0 min 0 W/m 19,3 km/h (3 Bft) 97,87 %
26.01.2019 21:52 6,4 C 5,6 C 5,0 C 94 % 995,6 hPa 0,0 l/m 0 min 0 min 0 W/m 22,5 km/h (4 Bft) 97,87 %
26.01.2019 21:54 6,4 C 5,6 C 5,0 C 94 % 995,6 hPa 0,0 l/m 0 min 0 min 0 W/m 19,3 km/h (3 Bft) 97,87 %
26.01.2019 21:56 6,4 C 5,6 C 5,0 C 93 % 995,5 hPa 0,0 l/m 0 min 0 min 0 W/m 25,7 km/h (4 Bft) 95,65 %
26.01.2019 21:58 6,4 C 5,6 C 5,0 C 93 % 995,6 hPa 0,0 l/m 0 min 0 min 0 W/m 29,0 km/h (5 Bft) 97,87 %
26.01.2019 22:00 6,4 C 5,6 C 5,0 C 93 % 995,5 hPa 0,0 l/m 0 min 0 min 0 W/m 12,9 km/h (3 Bft) 95,74 %
26.01.2019 22:02 6,4 C 5,6 C 5,0 C 93 % 995,4 hPa 0,0 l/m 0 min 2 min 0 W/m 25,7 km/h (4 Bft) 93,62 %
26.01.2019 22:04 6,4 C 5,6 C 5,0 C 93 % 995,4 hPa 0,0 l/m 0 min 0 min 0 W/m 22,5 km/h (4 Bft) 93,62 %
26.01.2019 22:06 6,4 C 5,6 C 5,0 C 93 % 995,2 hPa 0,0 l/m 0 min 0 min 0 W/m 22,5 km/h (4 Bft) 94,83 %
26.01.2019 22:08 6,4 C 5,6 C 5,0 C 93 % 995,2 hPa 0,0 l/m 0 min 0 min 0 W/m 22,5 km/h (4 Bft) 95,24 %
26.01.2019 22:10 6,4 C 5,6 C 5,0 C 93 % 995,1 hPa 0,0 l/m 0 min 0 min 0 W/m 19,3 km/h (3 Bft) 95,74 %
26.01.2019 22:12 6,4 C 5,6 C 5,0 C 93 % 995,0 hPa 0,0 l/m 0 min 0 min 0 W/m 22,5 km/h (4 Bft) 95,74 %
26.01.2019 22:14 6,4 C 5,6 C 5,0 C 92 % 995,0 hPa 0,0 l/m 0 min 0 min 0 W/m 29,0 km/h (5 Bft) 95,74 %
26.01.2019 22:16 6,4 C 5,6 C 5,0 C 92 % 995,0 hPa 0,0 l/m 0 min 0 min 0 W/m 22,5 km/h (4 Bft) 93,62 %
26.01.2019 22:18 6,4 C 5,6 C 5,0 C 92 % 995,0 hPa 0,0 l/m 0 min 0 min 0 W/m 29,0 km/h (5 Bft) 95,74 %
26.01.2019 22:20 6,4 C 5,6 C 5,0 C 92 % 995,0 hPa 0,0 l/m 0 min 0 min 0 W/m 25,7 km/h (4 Bft) 93,48 %
26.01.2019 22:22 6,4 C 5,6 C 5,0 C 92 % 994,9 hPa 0,0 l/m 0 min 0 min 0 W/m 19,3 km/h (3 Bft) 93,62 %
26.01.2019 22:24 6,4 C 5,6 C 5,0 C 92 % 994,8 hPa 0,0 l/m 0 min 0 min 0 W/m 16,1 km/h (3 Bft) 97,87 %
26.01.2019 22:26 6,4 C 5,6 C 5,0 C 92 % 994,8 hPa 0,0 l/m 0 min 0 min 0 W/m 16,1 km/h (3 Bft) 91,49 %
26.01.2019 22:28 6,4 C 5,6 C 5,0 C 92 % 994,7 hPa 0,0 l/m 0 min 0 min 0 W/m 29,0 km/h (5 Bft) 95,74 %
26.01.2019 22:30 6,4 C 5,6 C 5,0 C 92 % 994,6 hPa 0,0 l/m 0 min 0 min 0 W/m 29,0 km/h (5 Bft) 95,74 %
26.01.2019 22:32 6,4 C 5,6 C 5,0 C 92 % 994,7 hPa 0,0 l/m 0 min 0 min 0 W/m 19,3 km/h (3 Bft) 93,48 %
26.01.2019 22:34 6,4 C 5,6 C 5,0 C 92 % 994,5 hPa 0,0 l/m 0 min 0 min 0 W/m 19,3 km/h (3 Bft) 91,49 %
26.01.2019 22:36 6,4 C 5,6 C 5,0 C 92 % 994,5 hPa 0,0 l/m 0 min 0 min 0 W/m 25,7 km/h (4 Bft) 93,62 %
26.01.2019 22:38 6,4 C 5,6 C 5,0 C 91 % 994,5 hPa 0,0 l/m 0 min 0 min 0 W/m 19,3 km/h (3 Bft) 97,92 %
26.01.2019 22:40 6,4 C 5,6 C 5,0 C 91 % 994,5 hPa 0,0 l/m 0 min 0 min 0 W/m 16,1 km/h (3 Bft) 100,00 %
26.01.2019 22:42 6,4 C 5,6 C 5,0 C 91 % 994,5 hPa 0,0 l/m 0 min 0 min 0 W/m 22,5 km/h (4 Bft) 97,83 %
26.01.2019 22:44 6,4 C 5,6 C 5,0 C 91 % 994,5 hPa 0,0 l/m 0 min 2 min 0 W/m 19,3 km/h (3 Bft) 95,74 %
26.01.2019 22:46 6,4 C 5,0 C 4,4 C 91 % 994,4 hPa 0,0 l/m 0 min 2 min 0 W/m 16,1 km/h (3 Bft) 97,87 %
26.01.2019 22:48 6,4 C 5,0 C 4,4 C 91 % 994,3 hPa 0,0 l/m 0 min 2 min 0 W/m 25,7 km/h (4 Bft) 97,87 %
26.01.2019 22:50 6,4 C 5,0 C 4,4 C 91 % 994,3 hPa 0,0 l/m 0 min 2 min 0 W/m 19,3 km/h (3 Bft) 95,74 %
26.01.2019 22:52 6,4 C 5,0 C 4,4 C 91 % 994,2 hPa 0,0 l/m 0 min 2 min 0 W/m 22,5 km/h (4 Bft) 97,87 %
26.01.2019 22:54 6,4 C 5,0 C 4,4 C 91 % 994,3 hPa 0,0 l/m 0 min 2 min 0 W/m 19,3 km/h (3 Bft) 97,83 %
26.01.2019 22:56 6,4 C 5,0 C 4,4 C 91 % 994,0 hPa 0,0 l/m 0 min 2 min 0 W/m 12,9 km/h (3 Bft) 97,87 %
26.01.2019 22:58 6,4 C 5,0 C 4,4 C 92 % 994,1 hPa 0,0 l/m 0 min 0 min 0 W/m 16,1 km/h (3 Bft) 97,87 %
26.01.2019 23:00 6,4 C 5,0 C 4,4 C 92 % 994,1 hPa 0,0 l/m 0 min 2 min 0 W/m 22,5 km/h (4 Bft) 97,87 %
26.01.2019 23:02 6,4 C 5,0 C 4,4 C 92 % 994,1 hPa 0,0 l/m 0 min 0 min 0 W/m 12,9 km/h (3 Bft) 97,87 %
26.01.2019 23:04 6,4 C 5,0 C 4,4 C 92 % 994,1 hPa 0,0 l/m 0 min 0 min 0 W/m 12,9 km/h (3 Bft) 95,74 %
26.01.2019 23:06 6,3 C 5,0 C 4,4 C 92 % 994,1 hPa 0,0 l/m 0 min 0 min 0 W/m 25,7 km/h (4 Bft) 97,83 %
26.01.2019 23:08 6,3 C 5,0 C 4,4 C 92 % 994,0 hPa 0,0 l/m 0 min 0 min 0 W/m 16,1 km/h (3 Bft) 95,74 %
26.01.2019 23:10 6,3 C 5,0 C 4,4 C 92 % 994,0 hPa 0,0 l/m 0 min 0 min 0 W/m 19,3 km/h (3 Bft) 97,87 %
26.01.2019 23:12 6,3 C 5,0 C 4,4 C 92 % 993,9 hPa 0,0 l/m 0 min 0 min 0 W/m 19,3 km/h (3 Bft) 97,87 %
26.01.2019 23:14 6,3 C 5,0 C 4,4 C 92 % 993,8 hPa 0,0 l/m 0 min 0 min 0 W/m 22,5 km/h (4 Bft) 97,87 %
26.01.2019 23:16 6,3 C 5,6 C 5,0 C 92 % 993,8 hPa 0,0 l/m 0 min 0 min 0 W/m 19,3 km/h (3 Bft) 97,87 %
26.01.2019 23:18 6,3 C 5,6 C 4,4 C 92 % 993,8 hPa 0,0 l/m 0 min 0 min 0 W/m 19,3 km/h (3 Bft) 97,83 %
26.01.2019 23:20 6,3 C 5,6 C 5,0 C 92 % 993,7 hPa 0,0 l/m 0 min 0 min 0 W/m 22,5 km/h (4 Bft) 97,87 %
26.01.2019 23:22 6,3 C 5,6 C 4,4 C 92 % 993,7 hPa 0,0 l/m 0 min 0 min 0 W/m 19,3 km/h (3 Bft) 97,87 %
26.01.2019 23:24 6,3 C 5,6 C 5,0 C 92 % 993,7 hPa 0,0 l/m 0 min 0 min 0 W/m 12,9 km/h (3 Bft) 95,74 %
26.01.2019 23:26 6,3 C 5,6 C 5,0 C 92 % 993,7 hPa 0,0 l/m 0 min 0 min 0 W/m 16,1 km/h (3 Bft) 97,87 %
26.01.2019 23:28 6,3 C 5,0 C 4,4 C 92 % 993,6 hPa 0,0 l/m 0 min 2 min 0 W/m 12,9 km/h (3 Bft) 97,87 %
26.01.2019 23:30 6,3 C 5,0 C 4,4 C 92 % 993,4 hPa 0,0 l/m 0 min 2 min 0 W/m 16,1 km/h (3 Bft) 97,83 %
26.01.2019 23:32 6,3 C 5,0 C 4,4 C 92 % 993,4 hPa 0,0 l/m 0 min 2 min 0 W/m 19,3 km/h (3 Bft) 97,87 %
26.01.2019 23:34 6,4 C 5,0 C 4,4 C 92 % 993,4 hPa 0,0 l/m 0 min 2 min 0 W/m 25,7 km/h (4 Bft) 97,87 %
26.01.2019 23:36 6,3 C 5,0 C 4,4 C 92 % 993,3 hPa 0,0 l/m 0 min 2 min 0 W/m 32,2 km/h (5 Bft) 97,87 %
26.01.2019 23:38 6,3 C 5,0 C 4,4 C 92 % 993,3 hPa 0,0 l/m 0 min 2 min 0 W/m 16,1 km/h (3 Bft) 100,00 %
26.01.2019 23:40 6,4 C 5,0 C 4,4 C 92 % 993,3 hPa 0,0 l/m 0 min 2 min 0 W/m 19,3 km/h (3 Bft) 100,00 %
26.01.2019 23:42 6,3 C 5,0 C 4,4 C 92 % 993,2 hPa 0,0 l/m 0 min 0 min 0 W/m 29,0 km/h (5 Bft) 97,83 %
26.01.2019 23:44 6,3 C 5,0 C 4,4 C 93 % 993,2 hPa 0,0 l/m 0 min 2 min 0 W/m 16,1 km/h (3 Bft) 100,00 %
26.01.2019 23:46 6,3 C 5,0 C 4,4 C 93 % 993,2 hPa 0,0 l/m 0 min 2 min 0 W/m 22,5 km/h (4 Bft) 100,00 %
26.01.2019 23:48 6,3 C 5,0 C 4,4 C 93 % 993,1 hPa 0,0 l/m 0 min 0 min 0 W/m 19,3 km/h (3 Bft) 100,00 %
26.01.2019 23:50 6,3 C 5,0 C 4,4 C 93 % 993,0 hPa 0,0 l/m 0 min 0 min 0 W/m 22,5 km/h (4 Bft) 100,00 %
26.01.2019 23:52 6,3 C 5,0 C 4,4 C 93 % 993,0 hPa 0,0 l/m 0 min 0 min 0 W/m 22,5 km/h (4 Bft) 97,83 %
26.01.2019 23:54 6,3 C 5,0 C 4,4 C 93 % 992,9 hPa 0,0 l/m 0 min 0 min 0 W/m 22,5 km/h (4 Bft) 100,00 %
26.01.2019 23:56 6,3 C 5,0 C 4,4 C 93 % 992,9 hPa 0,0 l/m 0 min 0 min 0 W/m 22,5 km/h (4 Bft) 97,87 %
26.01.2019 23:58 6,3 C 5,0 C 4,4 C 93 % 992,8 hPa 0,0 l/m 0 min 0 min 0 W/m 22,5 km/h (4 Bft) 97,87 %
_ Min-Zeit 00:00 00:00 00:00 22:38 23:58 - - - - 14:18 00:02
Minimum _ 2,9 C 2,2 C 1,7 C 91 % 992,8 hPa - - - - 3,2 km/h (1 Bft) 10,53 %
_ Max-Zeit 13:40 13:08 13:08 01:50 00:00 17:48 13:08 18:08 13:08 08:46 00:20
Maximum _ 7,3 C 8,3 C 6,7 C 99 % 1008,0 hPa 0,2 l/m 2 min 4 min 241 W/m 35,4 km/h
W-SW (5 Bft)
100,00 %
Durchschnitt _ 5,6 C 5,1 C 4,3 C 97 % 1003,0 hPa #0,4 l/m #8 min. #1:46 h 51 W/m 16,9 km/h (3 Bft) 97,40 %
© 2019 W. Hausmann